Observation data for Hobbs on 12/09/2018      Previous  Date       Current Mesonet Observations  Soil Data  Daily Summary Page  Observations in Plain Language
KHO1 090600Z 12002KT M01/M01 A3031 RMK A01 T10111014  RH  098%=      5-min Rain = 0
KHO1 090601Z 12002KT M01/M01 A3031 RMK A01 T10111014  RH  098%=      5-min Rain = 0
KHO1 090602Z 12002KT M01/M01 A3031 RMK A01 T10101013  RH  098%=      5-min Rain = 0
KHO1 090603Z 12002KT M01/M01 A3031 RMK A01 T10101013  RH  098%=      5-min Rain = 0
KHO1 090604Z 12002KT M01/M01 A3031 RMK A01 T10101012  RH  098%=      5-min Rain = 0
KHO1 090605Z 11002KT M01/M01 A3031 RMK A01 T10101012  RH  098%=      5-min Rain = 0
KHO1 090606Z 11002KT M01/M01 A303 RMK A01 T10101012  RH  098%=      5-min Rain = 0
KHO1 090607Z 11002KT M01/M01 A3031 RMK A01 T10101013  RH  098%=      5-min Rain = 0
KHO1 090608Z 11002KT M01/M01 A3031 RMK A01 T10101013  RH  098%=      5-min Rain = 0
KHO1 090609Z 10001KT M01/M01 A3031 RMK A01 T10111013  RH  098%=      5-min Rain = 0
KHO1 090610Z 10001KT M01/M01 A3031 RMK A01 T10111014  RH  098%=      5-min Rain = 0
KHO1 090611Z 10002KT M01/M01 A3031 RMK A01 T10111014  RH  098%=      5-min Rain = 0
KHO1 090612Z 09001KT M01/M01 A3031 RMK A01 T10111014  RH  098%=      5-min Rain = 0
KHO1 090613Z 09001KT M01/M01 A3031 RMK A01 T10111014  RH  098%=      5-min Rain = 0
KHO1 090614Z 09002KT M01/M01 A3031 RMK A01 T10111013  RH  098%=      5-min Rain = 0
KHO1 090615Z 09002KT M01/M01 A303 RMK A01 T10111013  RH  098%=      5-min Rain = 0
KHO1 090616Z 08001KT M01/M01 A303 RMK A01 T10111013  RH  098%=      5-min Rain = 0
KHO1 090617Z 07001KT M01/M01 A303 RMK A01 T10111014  RH  098%=      5-min Rain = 0
KHO1 090618Z 08002KT M01/M01 A303 RMK A01 T10121014  RH  098%=      5-min Rain = 0
KHO1 090619Z 08002KT M01/M02 A303 RMK A01 T10121015  RH  098%=      5-min Rain = 0
KHO1 090620Z 09002KT M01/M02 A303 RMK A01 T10121015  RH  098%=      5-min Rain = 0
KHO1 090621Z 09001KT M01/M02 A303 RMK A01 T10131015  RH  098%=      5-min Rain = 0
KHO1 090622Z 09002KT M01/M02 A303 RMK A01 T10131015  RH  098%=      5-min Rain = 0
KHO1 090623Z 08001KT M01/M02 A303 RMK A01 T10131016  RH  098%=      5-min Rain = 0
KHO1 090624Z 09001KT M01/M02 A303 RMK A01 T10131016  RH  098%=      5-min Rain = 0
KHO1 090625Z 09001KT M01/M02 A303 RMK A01 T10141017  RH  098%=      5-min Rain = 0
KHO1 090626Z 09001KT M01/M02 A303 RMK A01 T10141017  RH  098%=      5-min Rain = 0
KHO1 090627Z 09001KT M02/M02 A303 RMK A01 T10151017  RH  098%=      5-min Rain = 0
KHO1 090628Z 09001KT M02/M02 A303 RMK A01 T10151017  RH  098%=      5-min Rain = 0
KHO1 090629Z 10002KT M02/M02 A303 RMK A01 T10151017  RH  098%=      5-min Rain = 0
KHO1 090630Z 10002KT M02/M02 A303 RMK A01 T10151017  RH  098%=      5-min Rain = 0
KHO1 090631Z 10002KT M02/M02 A303 RMK A01 T10151017  RH  098%=      5-min Rain = 0
KHO1 090632Z 10002KT M02/M02 A303 RMK A01 T10151017  RH  098%=      5-min Rain = 0
KHO1 090633Z 10002KT M02/M02 A303 RMK A01 T10151017  RH  098%=      5-min Rain = 0
KHO1 090634Z 10002KT M02/M02 A303 RMK A01 T10151017  RH  098%=      5-min Rain = 0
KHO1 090635Z 10003KT M02/M02 A303 RMK A01 T10151018  RH  098%=      5-min Rain = 0
KHO1 090636Z 10002KT M02/M02 A303 RMK A01 T10161018  RH  098%=      5-min Rain = 0
KHO1 090637Z 10003KT M02/M02 A303 RMK A01 T10161018  RH  098%=      5-min Rain = 0
KHO1 090638Z 10003KT M02/M02 A303 RMK A01 T10161018  RH  098%=      5-min Rain = 0
KHO1 090639Z 10003KT M02/M02 A303 RMK A01 T10161018  RH  098%=      5-min Rain = 0
KHO1 090640Z 10003KT M02/M02 A303 RMK A01 T10151017  RH  099%=      5-min Rain = 0
KHO1 090641Z 11002KT M02/M02 A303 RMK A01 T10151017  RH  099%=      5-min Rain = 0
KHO1 090642Z 12002KT M01/M02 A303 RMK A01 T10141016  RH  099%=      5-min Rain = 0
KHO1 090643Z 12003KT M01/M01 A303 RMK A01 T10131014  RH  099%=      5-min Rain = 0
KHO1 090644Z 12003KT M01/M01 A303 RMK A01 T10121013  RH  099%=      5-min Rain = 0
KHO1 090645Z 12003KT M01/M01 A303 RMK A01 T10121013  RH  099%=      5-min Rain = 0
KHO1 090646Z 11002KT M01/M01 A303 RMK A01 T10131014  RH  099%=      5-min Rain = 0
KHO1 090647Z 11002KT M01/M01 A303 RMK A01 T10131014  RH  099%=      5-min Rain = 0
KHO1 090648Z 11003KT M01/M01 A303 RMK A01 T10131014  RH  099%=      5-min Rain = 0
KHO1 090649Z 11002KT M01/M02 A303 RMK A01 T10131015  RH  099%=      5-min Rain = 0
KHO1 090650Z 10002KT M01/M02 A303 RMK A01 T10141015  RH  099%=      5-min Rain = 0
KHO1 090651Z 09002KT M01/M02 A303 RMK A01 T10141016  RH  099%=      5-min Rain = 0
KHO1 090652Z 10003KT M02/M02 A303 RMK A01 T10151016  RH  099%=      5-min Rain = 0
KHO1 090653Z 10003KT M02/M02 A303 RMK A01 T10151016  RH  099%=      5-min Rain = 0
KHO1 090654Z 11003KT M02/M02 A303 RMK A01 T10151017  RH  099%=      5-min Rain = 0
KHO1 090655Z 11002KT M02/M02 A303 RMK A01 T10151016  RH  099%=      5-min Rain = 0
KHO1 090656Z 11002KT M01/M02 A303 RMK A01 T10141016  RH  099%=      5-min Rain = 0
KHO1 090657Z 11002KT M01/M02 A303 RMK A01 T10141015  RH  099%=      5-min Rain = 0
KHO1 090658Z 11002KT M01/M02 A303 RMK A01 T10141015  RH  099%=      5-min Rain = 0
KHO1 090659Z 11002KT M01/M02 A303 RMK A01 T10141015  RH  099%=      5-min Rain = 0
KHO1 090700Z 11002KT M01/M02 A303 RMK A01 T10141015  RH  099%=      5-min Rain = 0
KHO1 090701Z 11002KT M01/M02 A303 RMK A01 T10141015  RH  099%=      5-min Rain = 0
KHO1 090702Z 11002KT M01/M02 A303 RMK A01 T10141016  RH  099%=      5-min Rain = 0
KHO1 090703Z 11002KT M01/M02 A303 RMK A01 T10141016  RH  099%=      5-min Rain = 0
KHO1 090704Z 10002KT M02/M02 A303 RMK A01 T10151016  RH  099%=      5-min Rain = 0
KHO1 090705Z 10002KT M02/M02 A303 RMK A01 T10151016  RH  099%=      5-min Rain = 0
KHO1 090706Z 09002KT M02/M02 A303 RMK A01 T10151016  RH  099%=      5-min Rain = 0
KHO1 090707Z 09002KT M02/M02 A303 RMK A01 T10151016  RH  099%=      5-min Rain = 0
KHO1 090708Z 09002KT M02/M02 A303 RMK A01 T10151016  RH  099%=      5-min Rain = 0
KHO1 090709Z 09002KT M02/M02 A303 RMK A01 T10151016  RH  099%=      5-min Rain = 0
KHO1 090710Z 09002KT M02/M02 A303 RMK A01 T10151017  RH  099%=      5-min Rain = 0
KHO1 090711Z 10002KT M02/M02 A303 RMK A01 T10151016  RH  099%=      5-min Rain = 0
KHO1 090712Z 11002KT M02/M02 A303 RMK A01 T10151016  RH  099%=      5-min Rain = 0
KHO1 090713Z 11002KT M02/M02 A303 RMK A01 T10151016  RH  099%=      5-min Rain = 0
KHO1 090714Z 11002KT M02/M02 A3029 RMK A01 T10151016  RH  099%=      5-min Rain = 0
KHO1 090715Z 11002KT M02/M02 A3029 RMK A01 T10151016  RH  099%=      5-min Rain = 0
KHO1 090716Z 11002KT M02/M02 A303 RMK A01 T10151016  RH  099%=      5-min Rain = 0
KHO1 090717Z 11002KT M02/M02 A3029 RMK A01 T10151016  RH  099%=      5-min Rain = 0
KHO1 090718Z 11002KT M02/M02 A3029 RMK A01 T10151016  RH  099%=      5-min Rain = 0
KHO1 090719Z 11002KT M02/M02 A3029 RMK A01 T10151016  RH  099%=      5-min Rain = 0
KHO1 090720Z 11002KT M02/M02 A3029 RMK A01 T10161016  RH  099%=      5-min Rain = 0
KHO1 090721Z 11002KT M02/M02 A3029 RMK A01 T10161017  RH  099%=      5-min Rain = 0
KHO1 090722Z 10003KT M02/M02 A3029 RMK A01 T10161017  RH  099%=      5-min Rain = 0
KHO1 090723Z 10002KT M02/M02 A3029 RMK A01 T10161017  RH  099%=      5-min Rain = 0
KHO1 090724Z 10002KT M02/M02 A3029 RMK A01 T10161017  RH  099%=      5-min Rain = 0
KHO1 090725Z 10002KT M02/M02 A3029 RMK A01 T10161017  RH  099%=      5-min Rain = 0
KHO1 090726Z 11002KT M02/M02 A3029 RMK A01 T10161017  RH  099%=      5-min Rain = 0
KHO1 090727Z 11002KT M02/M02 A3029 RMK A01 T10161017  RH  099%=      5-min Rain = 0
KHO1 090728Z 12002KT M02/M02 A3029 RMK A01 T10161016  RH  100%=      5-min Rain = 0
KHO1 090729Z 12002KT M02/M02 A3029 RMK A01 T10161016  RH  100%=      5-min Rain = 0
KHO1 090730Z 13002KT M02/M02 A3029 RMK A01 T10161017  RH  100%=      5-min Rain = 0
KHO1 090731Z 13001KT M02/M02 A3029 RMK A01 T10171017  RH  100%=      5-min Rain = 0
KHO1 090732Z 13001KT M02/M02 A3029 RMK A01 T10171018  RH  100%=      5-min Rain = 0
KHO1 090733Z 13001KT M02/M02 A3029 RMK A01 T10171018  RH  099%=      5-min Rain = 0
KHO1 090734Z 13001KT M02/M02 A3029 RMK A01 T10171018  RH  099%=      5-min Rain = 0
KHO1 090735Z 13001KT M02/M02 A3029 RMK A01 T10181018  RH  099%=      5-min Rain = 0
KHO1 090736Z 13001KT M02/M02 A3029 RMK A01 T10181019  RH  099%=      5-min Rain = 0
KHO1 090737Z 13001KT M02/M02 A3029 RMK A01 T10181019  RH  099%=      5-min Rain = 0
KHO1 090738Z 13000KT M02/M02 A303 RMK A01 T10181019  RH  099%=      5-min Rain = 0
KHO1 090739Z 00000KT M02/M02 A303 RMK A01 T10181018  RH  100%=      5-min Rain = 0
KHO1 090740Z 00000KT M02/M02 A303 RMK A01 T10171018  RH  100%=      5-min Rain = 0
KHO1 090741Z 00000KT M02/M02 A303 RMK A01 T10171017  RH  100%=      5-min Rain = 0
KHO1 090742Z 00000KT M02/M02 A3029 RMK A01 T10171017  RH  100%=      5-min Rain = 0
KHO1 090743Z 00000KT M02/M02 A3029 RMK A01 T10161016  RH  100%=      5-min Rain = 0
KHO1 090744Z 00000KT M02/M02 A3029 RMK A01 T10161016  RH  100%=      5-min Rain = 0
KHO1 090745Z 00000KT M02/M02 A3029 RMK A01 T10151015  RH  100%=      5-min Rain = 0
KHO1 090746Z 00000KT M02/M02 A3029 RMK A01 T10151015  RH  100%=      5-min Rain = 0
KHO1 090747Z 00000KT M02/M02 A3029 RMK A01 T10151015  RH  100%=      5-min Rain = 0
KHO1 090748Z 00000KT M02/M02 A3029 RMK A01 T10151015  RH  100%=      5-min Rain = 0
KHO1 090749Z 00000KT M02/M02 A3029 RMK A01 T10151015  RH  100%=      5-min Rain = 0
KHO1 090750Z 00000KT M02/M02 A3029 RMK A01 T10161016  RH  100%=      5-min Rain = 0
KHO1 090751Z 00000KT M02/M02 A3029 RMK A01 T10181018  RH  100%=      5-min Rain = 0
KHO1 090752Z 00000KT M02/M02 A3029 RMK A01 T10191019  RH  100%=      5-min Rain = 0
KHO1 090753Z 00000KT M02/M02 A3029 RMK A01 T10191020  RH  100%=      5-min Rain = 0
KHO1 090754Z 00000KT M02/M02 A3029 RMK A01 T10191020  RH  100%=      5-min Rain = 0
KHO1 090755Z 00000KT M02/M02 A3029 RMK A01 T10201020  RH  100%=      5-min Rain = 0
KHO1 090756Z 00000KT M02/M02 A3029 RMK A01 T10201020  RH  100%=      5-min Rain = 0
KHO1 090757Z 00000KT M02/M02 A3029 RMK A01 T10201020  RH  100%=      5-min Rain = 0
KHO1 090758Z 00000KT M02/M02 A3029 RMK A01 T10201020  RH  100%=      5-min Rain = 0
KHO1 090759Z 00000KT M02/M02 A3029 RMK A01 T10211021  RH  100%=      5-min Rain = 0
KHO1 090800Z 03000KT M02/M02 A3029 RMK A01 T10211021  RH  100%=      5-min Rain = 0
KHO1 090801Z 03001KT M02/M02 A3029 RMK A01 T10211021  RH  100%=      5-min Rain = 0
KHO1 090802Z 03000KT M02/M02 A3029 RMK A01 T10221022  RH  100%=      5-min Rain = 0
KHO1 090803Z 00000KT M02/M02 A3029 RMK A01 T10221023  RH  100%=      5-min Rain = 0
KHO1 090804Z 00000KT M02/M02 A3029 RMK A01 T10231023  RH  100%=      5-min Rain = 0
KHO1 090805Z 00000KT M02/M02 A3029 RMK A01 T10231024  RH  100%=      5-min Rain = 0
KHO1 090806Z 00000KT M02/M02 A3029 RMK A01 T10241024  RH  100%=      5-min Rain = 0
KHO1 090807Z 00000KT M02/M02 A3029 RMK A01 T10241024  RH  100%=      5-min Rain = 0
KHO1 090808Z 36000KT M02/M02 A303 RMK A01 T10241024  RH  100%=      5-min Rain = 0
KHO1 090809Z 34002KT M02/M02 A303 RMK A01 T10241024  RH  100%=      5-min Rain = 0
KHO1 090810Z 35002KT M03/M03 A303 RMK A01 T10251025  RH  100%=      5-min Rain = 0
KHO1 090811Z 00002KT M03/M03 A303 RMK A01 T10251025  RH  100%=      5-min Rain = 0
KHO1 090812Z 01002KT M03/M03 A303 RMK A01 T10251025  RH  100%=      5-min Rain = 0
KHO1 090813Z 01002KT M03/M03 A303 RMK A01 T10251025  RH  100%=      5-min Rain = 0
KHO1 090814Z 01002KT M03/M03 A303 RMK A01 T10251025  RH  100%=      5-min Rain = 0
KHO1 090815Z 01001KT M03/M03 A3029 RMK A01 T10251025  RH  100%=      5-min Rain = 0
KHO1 090816Z 01000KT M03/M03 A3029 RMK A01 T10251025  RH  100%=      5-min Rain = 0
KHO1 090817Z 00000KT M03/M03 A3029 RMK A01 T10251025  RH  100%=      5-min Rain = 0
KHO1 090818Z 00000KT M03/M03 A3029 RMK A01 T10261026  RH  100%=      5-min Rain = 0
KHO1 090819Z 00000KT M03/M03 A3029 RMK A01 T10261026  RH  100%=      5-min Rain = 0
KHO1 090820Z 34001KT M03/M03 A3029 RMK A01 T10271027  RH  100%=      5-min Rain = 0
KHO1 090821Z 34003KT M03/M03 A3029 RMK A01 T10281028  RH  100%=      5-min Rain = 0
KHO1 090822Z 34003KT M03/M03 A3029 RMK A01 T10291029  RH  100%=      5-min Rain = 0
KHO1 090823Z 35002KT M03/M03 A3029 RMK A01 T10291029  RH  100%=      5-min Rain = 0
KHO1 090824Z 00002KT M03/M03 A3029 RMK A01 T10291029  RH  100%=      5-min Rain = 0
KHO1 090825Z 00002KT M03/M03 A303 RMK A01 T10291029  RH  100%=      5-min Rain = 0
KHO1 090826Z 00001KT M03/M03 A303 RMK A01 T10291029  RH  100%=      5-min Rain = 0
KHO1 090827Z 00002KT M03/M03 A3029 RMK A01 T10291029  RH  100%=      5-min Rain = 0
KHO1 090828Z 01002KT M03/M03 A3029 RMK A01 T10291029  RH  100%=      5-min Rain = 0
KHO1 090829Z 02003KT M03/M03 A3029 RMK A01 T10301030  RH  100%=      5-min Rain = 0
KHO1 090830Z 01003KT M03/M03 A3029 RMK A01 T10301030  RH  100%=      5-min Rain = 0
KHO1 090831Z 01002KT M03/M03 A3029 RMK A01 T10301030  RH  100%=      5-min Rain = 0
KHO1 090832Z 00002KT M03/M03 A3029 RMK A01 T10301030  RH  100%=      5-min Rain = 0
KHO1 090833Z 35003KT M03/M03 A3029 RMK A01 T10301030  RH  100%=      5-min Rain = 0
KHO1 090834Z 35003KT M03/M03 A3029 RMK A01 T10301030  RH  100%=      5-min Rain = 0
KHO1 090835Z 35003KT M03/M03 A3029 RMK A01 T10301030  RH  100%=      5-min Rain = 0
KHO1 090836Z 35003KT M03/M03 A3029 RMK A01 T10291029  RH  100%=      5-min Rain = 0
KHO1 090837Z 35002KT M03/M03 A3029 RMK A01 T10291029  RH  100%=      5-min Rain = 0
KHO1 090838Z 34003KT M03/M03 A3029 RMK A01 T10291029  RH  100%=      5-min Rain = 0
KHO1 090839Z 33003KT M03/M03 A3029 RMK A01 T10301030  RH  100%=      5-min Rain = 0
KHO1 090840Z 32002KT M03/M03 A3029 RMK A01 T10301030  RH  100%=      5-min Rain = 0
KHO1 090841Z 32002KT M03/M03 A3029 RMK A01 T10301030  RH  100%=      5-min Rain = 0
KHO1 090842Z 33003KT M03/M03 A3029 RMK A01 T10311031  RH  100%=      5-min Rain = 0
KHO1 090843Z 34004KT M03/M03 A3029 RMK A01 T10311031  RH  100%=      5-min Rain = 0
KHO1 090844Z 34004KT M03/M03 A3029 RMK A01 T10311031  RH  100%=      5-min Rain = 0
KHO1 090845Z 35003KT M03/M03 A3029 RMK A01 T10321032  RH  100%=      5-min Rain = 0
KHO1 090846Z 34003KT M03/M03 A3029 RMK A01 T10321032  RH  100%=      5-min Rain = 0
KHO1 090847Z 34003KT M03/M03 A3029 RMK A01 T10321032  RH  100%=      5-min Rain = 0
KHO1 090848Z 34003KT M03/M03 A3029 RMK A01 T10331033  RH  100%=      5-min Rain = 0
KHO1 090849Z 34003KT M03/M03 A3029 RMK A01 T10331033  RH  100%=      5-min Rain = 0
KHO1 090850Z 36002KT M03/M03 A3029 RMK A01 T10331033  RH  100%=      5-min Rain = 0
KHO1 090851Z 01002KT M03/M03 A3029 RMK A01 T10331033  RH  100%=      5-min Rain = 0
KHO1 090852Z 00002KT M03/M03 A3029 RMK A01 T10331033  RH  100%=      5-min Rain = 0
KHO1 090853Z 00002KT M03/M03 A3029 RMK A01 T10331033  RH  100%=      5-min Rain = 0
KHO1 090854Z 00002KT M03/M03 A3029 RMK A01 T10331033  RH  100%=      5-min Rain = 0
KHO1 090855Z 00002KT M03/M03 A3029 RMK A01 T10331033  RH  100%=      5-min Rain = 0
KHO1 090856Z 00002KT M03/M03 A3029 RMK A01 T10331033  RH  100%=      5-min Rain = 0
KHO1 090857Z 00001KT M03/M03 A3029 RMK A01 T10331033  RH  100%=      5-min Rain = 0
KHO1 090858Z 00001KT M03/M03 A3029 RMK A01 T10331033  RH  100%=      5-min Rain = 0
KHO1 090859Z 00001KT M03/M03 A3029 RMK A01 T10331033  RH  100%=      5-min Rain = 0
KHO1 090900Z 00001KT M03/M03 A3029 RMK A01 T10331033  RH  100%=      5-min Rain = 0
KHO1 090901Z 00002KT M03/M03 A3029 RMK A01 T10331033  RH  100%=      5-min Rain = 0
KHO1 090902Z 00002KT M03/M03 A3029 RMK A01 T10331033  RH  100%=      5-min Rain = 0
KHO1 090903Z 00002KT M03/M03 A3029 RMK A01 T10331033  RH  100%=      5-min Rain = 0
KHO1 090904Z 00001KT M03/M03 A3029 RMK A01 T10341034  RH  100%=      5-min Rain = 0
KHO1 090905Z 00001KT M03/M03 A3029 RMK A01 T10341034  RH  100%=      5-min Rain = 0
KHO1 090906Z 00001KT M03/M03 A3029 RMK A01 T10341034  RH  100%=      5-min Rain = 0
KHO1 090907Z 35001KT M03/M03 A3029 RMK A01 T10341034  RH  100%=      5-min Rain = 0
KHO1 090908Z 33002KT M03/M03 A3029 RMK A01 T10341034  RH  100%=      5-min Rain = 0
KHO1 090909Z 33002KT M03/M03 A3029 RMK A01 T10341034  RH  100%=      5-min Rain = 0
KHO1 090910Z 33002KT M03/M03 A3029 RMK A01 T10331033  RH  100%=      5-min Rain = 0
KHO1 090911Z 33002KT M03/M03 A3029 RMK A01 T10331033  RH  100%=      5-min Rain = 0
KHO1 090912Z 34003KT M03/M03 A3029 RMK A01 T10331033  RH  100%=      5-min Rain = 0
KHO1 090913Z 34003KT M03/M03 A3029 RMK A01 T10331033  RH  100%=      5-min Rain = 0
KHO1 090914Z 34003KT M03/M03 A3029 RMK A01 T10331033  RH  100%=      5-min Rain = 0
KHO1 090915Z 34003KT M03/M03 A3029 RMK A01 T10331033  RH  100%=      5-min Rain = 0
KHO1 090916Z 34003KT M03/M03 A3029 RMK A01 T10341034  RH  100%=      5-min Rain = 0
KHO1 090917Z 35003KT M03/M03 A3029 RMK A01 T10341034  RH  100%=      5-min Rain = 0
KHO1 090918Z 35003KT M03/M03 A3029 RMK A01 T10341034  RH  100%=      5-min Rain = 0
KHO1 090919Z 34002KT M04/M04 A3029 RMK A01 T10351035  RH  100%=      5-min Rain = 0
KHO1 090920Z 33002KT M04/M04 A3029 RMK A01 T10351035  RH  100%=      5-min Rain = 0
KHO1 090921Z 34002KT M04/M04 A3029 RMK A01 T10351035  RH  100%=      5-min Rain = 0
KHO1 090922Z 34002KT M04/M04 A3029 RMK A01 T10351035  RH  100%=      5-min Rain = 0
KHO1 090923Z 34002KT M04/M04 A3029 RMK A01 T10351035  RH  100%=      5-min Rain = 0
KHO1 090924Z 34002KT M04/M04 A3029 RMK A01 T10351035  RH  100%=      5-min Rain = 0
KHO1 090925Z 34002KT M04/M04 A3029 RMK A01 T10351035  RH  100%=      5-min Rain = 0
KHO1 090926Z 34002KT M04/M04 A3029 RMK A01 T10351035  RH  100%=      5-min Rain = 0
KHO1 090927Z 34002KT M04/M04 A3029 RMK A01 T10351035  RH  100%=      5-min Rain = 0
KHO1 090928Z 34001KT M04/M04 A3029 RMK A01 T10351035  RH  100%=      5-min Rain = 0
KHO1 090929Z 34002KT M04/M04 A3029 RMK A01 T10351036  RH  100%=      5-min Rain = 0
KHO1 090930Z 34002KT M04/M04 A3029 RMK A01 T10361036  RH  100%=      5-min Rain = 0
KHO1 090931Z 34001KT M04/M04 A3029 RMK A01 T10361036  RH  100%=      5-min Rain = 0
KHO1 090932Z 34000KT M04/M04 A3029 RMK A01 T10361036  RH  100%=      5-min Rain = 0
KHO1 090933Z 34001KT M04/M04 A3029 RMK A01 T10361036  RH  100%=      5-min Rain = 0
KHO1 090934Z 33002KT M04/M04 A3029 RMK A01 T10361036  RH  100%=      5-min Rain = 0
KHO1 090935Z 33002KT M04/M04 A3029 RMK A01 T10371037  RH  100%=      5-min Rain = 0
KHO1 090936Z 34002KT M04/M04 A3029 RMK A01 T10371037  RH  100%=      5-min Rain = 0
KHO1 090937Z 35003KT M04/M04 A3029 RMK A01 T10371037  RH  100%=      5-min Rain = 0
KHO1 090938Z 36003KT M04/M04 A3029 RMK A01 T10371037  RH  100%=      5-min Rain = 0
KHO1 090939Z 01003KT M04/M04 A3029 RMK A01 T10371037  RH  100%=      5-min Rain = 0
KHO1 090940Z 01004KT M04/M04 A3029 RMK A01 T10371037  RH  100%=      5-min Rain = 0
KHO1 090941Z 01004KT M04/M04 A3029 RMK A01 T10371037  RH  100%=      5-min Rain = 0
KHO1 090942Z 01004KT M04/M04 A3029 RMK A01 T10381038  RH  100%=      5-min Rain = 0
KHO1 090943Z 01003KT M04/M04 A3029 RMK A01 T10381038  RH  100%=      5-min Rain = 0
KHO1 090944Z 01003KT M04/M04 A3029 RMK A01 T10381038  RH  100%=      5-min Rain = 0
KHO1 090945Z 34003KT M04/M04 A3029 RMK A01 T10381038  RH  100%=      5-min Rain = 0
KHO1 090946Z 35003KT M04/M04 A3029 RMK A01 T10381038  RH  100%=      5-min Rain = 0
KHO1 090947Z 01003KT M04/M04 A3029 RMK A01 T10381038  RH  100%=      5-min Rain = 0
KHO1 090948Z 01003KT M04/M04 A3029 RMK A01 T10381038  RH  100%=      5-min Rain = 0
KHO1 090949Z 00004KT M04/M04 A3029 RMK A01 T10371037  RH  100%=      5-min Rain = 0
KHO1 090950Z 01004KT M04/M04 A3029 RMK A01 T10371037  RH  100%=      5-min Rain = 0
KHO1 090951Z 02003KT M04/M04 A3029 RMK A01 T10361036  RH  100%=      5-min Rain = 0
KHO1 090952Z 00004KT M04/M04 A3029 RMK A01 T10371037  RH  100%=      5-min Rain = 0
KHO1 090953Z 01004KT M04/M04 A3029 RMK A01 T10371037  RH  100%=      5-min Rain = 0
KHO1 090954Z 02003KT M04/M04 A3029 RMK A01 T10371037  RH  100%=      5-min Rain = 0
KHO1 090955Z 01003KT M04/M04 A3029 RMK A01 T10371037  RH  100%=      5-min Rain = 0
KHO1 090956Z 01003KT M04/M04 A3029 RMK A01 T10371037  RH  100%=      5-min Rain = 0
KHO1 090957Z 02003KT M04/M04 A3029 RMK A01 T10371037  RH  100%=      5-min Rain = 0
KHO1 090958Z 02004KT M04/M04 A3029 RMK A01 T10371037  RH  100%=      5-min Rain = 0
KHO1 090959Z 03003KT M04/M04 A3029 RMK A01 T10371037  RH  100%=      5-min Rain = 0
KHO1 091000Z 00004KT M04/M04 A3029 RMK A01 T10371037  RH  100%=      5-min Rain = 0
KHO1 091001Z 00003KT M04/M04 A3029 RMK A01 T10361036  RH  100%=      5-min Rain = 0
KHO1 091002Z 01002KT M04/M04 A3029 RMK A01 T10361036  RH  100%=      5-min Rain = 0
KHO1 091003Z 35003KT M04/M04 A3029 RMK A01 T10361036  RH  100%=      5-min Rain = 0
KHO1 091004Z 35003KT M04/M04 A3029 RMK A01 T10361036  RH  100%=      5-min Rain = 0
KHO1 091005Z 35002KT M04/M04 A3029 RMK A01 T10361036  RH  100%=      5-min Rain = 0
KHO1 091006Z 36002KT M04/M04 A3029 RMK A01 T10361036  RH  100%=      5-min Rain = 0
KHO1 091007Z 00002KT M04/M04 A3029 RMK A01 T10351035  RH  100%=      5-min Rain = 0
KHO1 091008Z 00003KT M04/M04 A3029 RMK A01 T10361036  RH  100%=      5-min Rain = 0
KHO1 091009Z 00002KT M04/M04 A3029 RMK A01 T10361036  RH  100%=      5-min Rain = 0
KHO1 091010Z 01003KT M04/M04 A3029 RMK A01 T10361036  RH  100%=      5-min Rain = 0
KHO1 091011Z 00003KT M04/M04 A3029 RMK A01 T10361036  RH  100%=      5-min Rain = 0
KHO1 091012Z 35002KT M04/M04 A3029 RMK A01 T10361036  RH  100%=      5-min Rain = 0
KHO1 091013Z 36003KT M04/M04 A3029 RMK A01 T10361036  RH  100%=      5-min Rain = 0
KHO1 091014Z 36003KT M04/M04 A3029 RMK A01 T10361036  RH  100%=      5-min Rain = 0
KHO1 091015Z 35003KT M04/M04 A3029 RMK A01 T10361036  RH  100%=      5-min Rain = 0
KHO1 091016Z 35002KT M04/M04 A3029 RMK A01 T10361036  RH  100%=      5-min Rain = 0
KHO1 091017Z 36003KT M04/M04 A3029 RMK A01 T10361036  RH  100%=      5-min Rain = 0
KHO1 091018Z 36003KT M04/M04 A3029 RMK A01 T10361036  RH  100%=      5-min Rain = 0
KHO1 091019Z 01002KT M04/M04 A3029 RMK A01 T10361036  RH  100%=      5-min Rain = 0
KHO1 091020Z 02002KT M04/M04 A3029 RMK A01 T10361036  RH  100%=      5-min Rain = 0
KHO1 091021Z 01003KT M04/M04 A3029 RMK A01 T10361036  RH  100%=      5-min Rain = 0
KHO1 091022Z 01003KT M04/M04 A3029 RMK A01 T10371037  RH  100%=      5-min Rain = 0
KHO1 091023Z 02003KT M04/M04 A3029 RMK A01 T10371037  RH  100%=      5-min Rain = 0
KHO1 091024Z 01002KT M04/M04 A3029 RMK A01 T10371037  RH  100%=      5-min Rain = 0
KHO1 091025Z 00002KT M04/M04 A3029 RMK A01 T10371037  RH  100%=      5-min Rain = 0
KHO1 091026Z 00001KT M04/M04 A3028 RMK A01 T10371037  RH  100%=      5-min Rain = 0
KHO1 091027Z 00001KT M04/M04 A3028 RMK A01 T10371037  RH  100%=      5-min Rain = 0
KHO1 091028Z 00002KT M04/M04 A3029 RMK A01 T10371037  RH  100%=      5-min Rain = 0
KHO1 091029Z 00002KT M04/M04 A3029 RMK A01 T10371037  RH  100%=      5-min Rain = 0
KHO1 091030Z 01002KT M04/M04 A3029 RMK A01 T10371037  RH  100%=      5-min Rain = 0
KHO1 091031Z 35002KT M04/M04 A3029 RMK A01 T10371037  RH  100%=      5-min Rain = 0
KHO1 091032Z 35002KT M04/M04 A3029 RMK A01 T10371037  RH  100%=      5-min Rain = 0
KHO1 091033Z 35002KT M04/M04 A3029 RMK A01 T10371037  RH  100%=      5-min Rain = 0
KHO1 091034Z 35002KT M04/M04 A3029 RMK A01 T10371037  RH  100%=      5-min Rain = 0
KHO1 091035Z 35002KT M04/M04 A3029 RMK A01 T10371037  RH  100%=      5-min Rain = 0
KHO1 091036Z 35002KT M04/M04 A3029 RMK A01 T10371037  RH  100%=      5-min Rain = 0
KHO1 091037Z 34002KT M04/M04 A3029 RMK A01 T10371037  RH  100%=      5-min Rain = 0
KHO1 091038Z 34001KT M04/M04 A3029 RMK A01 T10371037  RH  100%=      5-min Rain = 0
KHO1 091039Z 34001KT M04/M04 A3029 RMK A01 T10381038  RH  100%=      5-min Rain = 0
KHO1 091040Z 34002KT M04/M04 A3029 RMK A01 T10381038  RH  100%=      5-min Rain = 0
KHO1 091041Z 34003KT M04/M04 A3029 RMK A01 T10381038  RH  100%=      5-min Rain = 0
KHO1 091042Z 34002KT M04/M04 A3029 RMK A01 T10381038  RH  100%=      5-min Rain = 0
KHO1 091043Z 34001KT M04/M04 A3029 RMK A01 T10381038  RH  100%=      5-min Rain = 0
KHO1 091044Z 33001KT M04/M04 A3029 RMK A01 T10381038  RH  100%=      5-min Rain = 0
KHO1 091045Z 32002KT M04/M04 A3029 RMK A01 T10381038  RH  100%=      5-min Rain = 0
KHO1 091046Z 31002KT M04/M04 A3029 RMK A01 T10391039  RH  100%=      5-min Rain = 0
KHO1 091047Z 31003KT M04/M04 A3029 RMK A01 T10391039  RH  100%=      5-min Rain = 0
KHO1 091048Z 31003KT M04/M04 A3029 RMK A01 T10391039  RH  100%=      5-min Rain = 0
KHO1 091049Z 32003KT M04/M04 A3029 RMK A01 T10391039  RH  100%=      5-min Rain = 0
KHO1 091050Z 32002KT M04/M04 A3029 RMK A01 T10401040  RH  100%=      5-min Rain = 0
KHO1 091051Z 32001KT M04/M04 A3029 RMK A01 T10401040  RH  100%=      5-min Rain = 0
KHO1 091052Z 32001KT M04/M04 A3029 RMK A01 T10401040  RH  100%=      5-min Rain = 0
KHO1 091053Z 33002KT M04/M04 A3029 RMK A01 T10401040  RH  100%=      5-min Rain = 0
KHO1 091054Z 33002KT M04/M04 A3029 RMK A01 T10401040  RH  100%=      5-min Rain = 0
KHO1 091055Z 33002KT M04/M04 A3029 RMK A01 T10401040  RH  100%=      5-min Rain = 0
KHO1 091056Z 34001KT M04/M04 A3029 RMK A01 T10411041  RH  100%=      5-min Rain = 0
KHO1 091057Z 34001KT M04/M04 A3029 RMK A01 T10411041  RH  100%=      5-min Rain = 0
KHO1 091058Z 33002KT M04/M04 A3029 RMK A01 T10411041  RH  100%=      5-min Rain = 0
KHO1 091059Z 33002KT M04/M04 A3029 RMK A01 T10411041  RH  100%=      5-min Rain = 0
KHO1 091100Z 33002KT M04/M04 A3029 RMK A01 T10411041  RH  100%=      5-min Rain = 0
KHO1 091101Z 33002KT M04/M04 A3029 RMK A01 T10411041  RH  100%=      5-min Rain = 0
KHO1 091102Z 35002KT M04/M04 A303 RMK A01 T10421042  RH  100%=      5-min Rain = 0
KHO1 091103Z 00004KT M04/M04 A303 RMK A01 T10411041  RH  100%=      5-min Rain = 0
KHO1 091104Z 00004KT M04/M04 A303 RMK A01 T10411041  RH  100%=      5-min Rain = 0
KHO1 091105Z 36002KT M04/M04 A303 RMK A01 T10411041  RH  100%=      5-min Rain = 0
KHO1 091106Z 34002KT M04/M04 A303 RMK A01 T10411041  RH  100%=      5-min Rain = 0
KHO1 091107Z 34002KT M04/M04 A303 RMK A01 T10411041  RH  100%=      5-min Rain = 0
KHO1 091108Z 34002KT M04/M04 A303 RMK A01 T10421042  RH  100%=      5-min Rain = 0
KHO1 091109Z 34002KT M04/M04 A303 RMK A01 T10421042  RH  100%=      5-min Rain = 0
KHO1 091110Z 34002KT M04/M04 A303 RMK A01 T10421042  RH  100%=      5-min Rain = 0
KHO1 091111Z 34001KT M04/M04 A303 RMK A01 T10421042  RH  100%=      5-min Rain = 0
KHO1 091112Z 34001KT M04/M04 A303 RMK A01 T10421042  RH  100%=      5-min Rain = 0
KHO1 091113Z 35002KT M04/M04 A303 RMK A01 T10421042  RH  100%=      5-min Rain = 0
KHO1 091114Z 35002KT M04/M04 A303 RMK A01 T10421042  RH  100%=      5-min Rain = 0
KHO1 091115Z 35002KT M04/M04 A303 RMK A01 T10421042  RH  100%=      5-min Rain = 0
KHO1 091116Z 35002KT M04/M04 A303 RMK A01 T10421042  RH  100%=      5-min Rain = 0
KHO1 091117Z 34002KT M04/M04 A303 RMK A01 T10421042  RH  100%=      5-min Rain = 0
KHO1 091118Z 34003KT M04/M04 A303 RMK A01 T10421042  RH  100%=      5-min Rain = 0
KHO1 091119Z 35003KT M04/M04 A303 RMK A01 T10421042  RH  100%=      5-min Rain = 0
KHO1 091120Z 00003KT M04/M04 A303 RMK A01 T10421042  RH  100%=      5-min Rain = 0
KHO1 091121Z 01004KT M04/M04 A303 RMK A01 T10421042  RH  100%=      5-min Rain = 0
KHO1 091122Z 01004KT M04/M04 A303 RMK A01 T10431043  RH  100%=      5-min Rain = 0
KHO1 091123Z 00004KT M04/M04 A303 RMK A01 T10431043  RH  100%=      5-min Rain = 0
KHO1 091124Z 01003KT M04/M04 A303 RMK A01 T10431043  RH  100%=      5-min Rain = 0
KHO1 091125Z 01003KT M04/M04 A303 RMK A01 T10431043  RH  100%=      5-min Rain = 0
KHO1 091126Z 01003KT M04/M04 A303 RMK A01 T10431044  RH  100%=      5-min Rain = 0
KHO1 091127Z 00003KT M04/M04 A303 RMK A01 T10441044  RH  100%=      5-min Rain = 0
KHO1 091128Z 00003KT M04/M04 A303 RMK A01 T10431043  RH  100%=      5-min Rain = 0
KHO1 091129Z 36002KT M04/M04 A303 RMK A01 T10431043  RH  100%=      5-min Rain = 0
KHO1 091130Z 35002KT M04/M04 A303 RMK A01 T10431043  RH  100%=      5-min Rain = 0
KHO1 091131Z 35002KT M04/M04 A303 RMK A01 T10431043  RH  100%=      5-min Rain = 0
KHO1 091132Z 00003KT M04/M04 A303 RMK A01 T10431043  RH  100%=      5-min Rain = 0
KHO1 091133Z 01004KT M04/M04 A303 RMK A01 T10431043  RH  100%=      5-min Rain = 0
KHO1 091134Z 02004KT M04/M04 A3031 RMK A01 T10431043  RH  100%=      5-min Rain = 0
KHO1 091135Z 01004KT M04/M04 A3031 RMK A01 T10431043  RH  100%=      5-min Rain = 0
KHO1 091136Z 01004KT M04/M04 A3031 RMK A01 T10431043  RH  100%=      5-min Rain = 0
KHO1 091137Z 01003KT M04/M04 A3031 RMK A01 T10431043  RH  100%=      5-min Rain = 0
KHO1 091138Z 00003KT M04/M04 A3031 RMK A01 T10431043  RH  100%=      5-min Rain = 0
KHO1 091139Z 00004KT M04/M04 A3031 RMK A01 T10431043  RH  100%=      5-min Rain = 0
KHO1 091140Z 00004KT M04/M04 A3031 RMK A01 T10431043  RH  100%=      5-min Rain = 0
KHO1 091141Z 00004KT M04/M04 A3031 RMK A01 T10431043  RH  100%=      5-min Rain = 0
KHO1 091142Z 01003KT M04/M04 A3031 RMK A01 T10431043  RH  100%=      5-min Rain = 0
KHO1 091143Z 36003KT M04/M04 A3031 RMK A01 T10421042  RH  100%=      5-min Rain = 0
KHO1 091144Z 36003KT M04/M04 A3031 RMK A01 T10421042  RH  100%=      5-min Rain = 0
KHO1 091145Z 35003KT M04/M04 A3031 RMK A01 T10421042  RH  100%=      5-min Rain = 0
KHO1 091146Z 35002KT M04/M04 A3031 RMK A01 T10421042  RH  100%=      5-min Rain = 0
KHO1 091147Z 00003KT M04/M04 A3031 RMK A01 T10421042  RH  100%=      5-min Rain = 0
KHO1 091148Z 35002KT M04/M04 A3031 RMK A01 T10421042  RH  100%=      5-min Rain = 0
KHO1 091149Z 35003KT M04/M04 A3031 RMK A01 T10411041  RH  100%=      5-min Rain = 0
KHO1 091150Z 35002KT M04/M04 A3031 RMK A01 T10411041  RH  100%=      5-min Rain = 0
KHO1 091151Z 35002KT M04/M04 A3031 RMK A01 T10411041  RH  100%=      5-min Rain = 0
KHO1 091152Z 36002KT M04/M04 A3031 RMK A01 T10411041  RH  100%=      5-min Rain = 0
KHO1 091153Z 36003KT M04/M04 A3031 RMK A01 T10411041  RH  100%=      5-min Rain = 0
KHO1 091154Z 36003KT M04/M04 A3031 RMK A01 T10411041  RH  100%=      5-min Rain = 0
KHO1 091155Z 36002KT M04/M04 A3031 RMK A01 T10411041  RH  100%=      5-min Rain = 0
KHO1 091156Z 34002KT M04/M04 A3031 RMK A01 T10411041  RH  100%=      5-min Rain = 0
KHO1 091157Z 34003KT M04/M04 A3031 RMK A01 T10411041  RH  100%=      5-min Rain = 0
KHO1 091158Z 35003KT M04/M04 A3031 RMK A01 T10411041  RH  100%=      5-min Rain = 0
KHO1 091159Z 36003KT M04/M04 A3031 RMK A01 T10411041  RH  100%=      5-min Rain = 0
KHO1 091200Z 36002KT M04/M04 A3031 RMK A01 T10411041  RH  100%=      5-min Rain = 0
KHO1 091201Z 35003KT M04/M04 A3031 RMK A01 T10411041  RH  100%=      5-min Rain = 0
KHO1 091202Z 36003KT M04/M04 A3031 RMK A01 T10411041  RH  100%=      5-min Rain = 0
KHO1 091203Z 00003KT M04/M04 A3031 RMK A01 T10411041  RH  100%=      5-min Rain = 0
KHO1 091204Z 00003KT M04/M04 A3031 RMK A01 T10411041  RH  100%=      5-min Rain = 0
KHO1 091205Z 00003KT M04/M04 A3031 RMK A01 T10411041  RH  100%=      5-min Rain = 0
KHO1 091206Z 35003KT M04/M04 A3031 RMK A01 T10411041  RH  100%=      5-min Rain = 0
KHO1 091207Z 35003KT M04/M04 A3032 RMK A01 T10411041  RH  100%=      5-min Rain = 0
KHO1 091208Z 00003KT M04/M04 A3032 RMK A01 T10401040  RH  100%=      5-min Rain = 0
KHO1 091209Z 02003KT M04/M04 A3032 RMK A01 T10401040  RH  100%=      5-min Rain = 0
KHO1 091210Z 01003KT M04/M04 A3032 RMK A01 T10401040  RH  100%=      5-min Rain = 0
KHO1 091211Z 01003KT M04/M04 A3032 RMK A01 T10411041  RH  100%=      5-min Rain = 0
KHO1 091212Z 35003KT M04/M04 A3032 RMK A01 T10411041  RH  100%=      5-min Rain = 0
KHO1 091213Z 36003KT M04/M04 A3032 RMK A01 T10411041  RH  100%=      5-min Rain = 0
KHO1 091214Z 01004KT M04/M04 A3032 RMK A01 T10411041  RH  100%=      5-min Rain = 0
KHO1 091215Z 00003KT M04/M04 A3032 RMK A01 T10411042  RH  100%=      5-min Rain = 0
KHO1 091216Z 00003KT M04/M04 A3032 RMK A01 T10421042  RH  100%=      5-min Rain = 0
KHO1 091217Z 00003KT M04/M04 A3032 RMK A01 T10421042  RH  100%=      5-min Rain = 0
KHO1 091218Z 35003KT M04/M04 A3032 RMK A01 T10421042  RH  100%=      5-min Rain = 0
KHO1 091219Z 00003KT M04/M04 A3032 RMK A01 T10421042  RH  100%=      5-min Rain = 0
KHO1 091220Z 01004KT M04/M04 A3033 RMK A01 T10421042  RH  100%=      5-min Rain = 0
KHO1 091221Z 01003KT M04/M04 A3032 RMK A01 T10421042  RH  100%=      5-min Rain = 0
KHO1 091222Z 00003KT M04/M04 A3032 RMK A01 T10421042  RH  100%=      5-min Rain = 0
KHO1 091223Z 00004KT M04/M04 A3033 RMK A01 T10431043  RH  100%=      5-min Rain = 0
KHO1 091224Z 00003KT M04/M04 A3032 RMK A01 T10431043  RH  100%=      5-min Rain = 0
KHO1 091225Z 01003KT M04/M04 A3032 RMK A01 T10421042  RH  100%=      5-min Rain = 0
KHO1 091226Z 01003KT M04/M04 A3033 RMK A01 T10421042  RH  100%=      5-min Rain = 0
KHO1 091227Z 01004KT M04/M04 A3033 RMK A01 T10421042  RH  100%=      5-min Rain = 0
KHO1 091228Z 00004KT M04/M04 A3033 RMK A01 T10421042  RH  100%=      5-min Rain = 0
KHO1 091229Z 01004KT M04/M04 A3033 RMK A01 T10431043  RH  100%=      5-min Rain = 0
KHO1 091230Z 01004KT M04/M04 A3033 RMK A01 T10431043  RH  100%=      5-min Rain = 0
KHO1 091231Z 01004KT M04/M04 A3033 RMK A01 T10431043  RH  100%=      5-min Rain = 0
KHO1 091232Z 36004KT M04/M04 A3033 RMK A01 T10431043  RH  100%=      5-min Rain = 0
KHO1 091233Z 35004KT M04/M04 A3033 RMK A01 T10441044  RH  100%=      5-min Rain = 0
KHO1 091234Z 36005KT M04/M04 A3033 RMK A01 T10441044  RH  100%=      5-min Rain = 0
KHO1 091235Z 36004KT M04/M05 A3033 RMK A01 T10441045  RH  100%=      5-min Rain = 0
KHO1 091236Z 00004KT M04/M04 A3033 RMK A01 T10441044  RH  100%=      5-min Rain = 0
KHO1 091237Z 02005KT M04/M04 A3033 RMK A01 T10441044  RH  100%=      5-min Rain = 0
KHO1 091238Z 01006KT M04/M04 A3033 RMK A01 T10441044  RH  100%=      5-min Rain = 0
KHO1 091239Z 01004KT M04/M04 A3033 RMK A01 T10441044  RH  100%=      5-min Rain = 0
KHO1 091240Z 01003KT M04/M04 A3033 RMK A01 T10441044  RH  100%=      5-min Rain = 0
KHO1 091241Z 01003KT M04/M04 A3033 RMK A01 T10441044  RH  100%=      5-min Rain = 0
KHO1 091242Z 01004KT M04/M04 A3033 RMK A01 T10441044  RH  100%=      5-min Rain = 0
KHO1 091243Z 02005KT M04/M04 A3033 RMK A01 T10441044  RH  100%=      5-min Rain = 0
KHO1 091244Z 01005KT M04/M04 A3033 RMK A01 T10441044  RH  100%=      5-min Rain = 0
KHO1 091245Z 00004KT M04/M04 A3033 RMK A01 T10431043  RH  100%=      5-min Rain = 0
KHO1 091246Z 01004KT M04/M04 A3033 RMK A01 T10431043  RH  100%=      5-min Rain = 0
KHO1 091247Z 01003KT M04/M04 A3033 RMK A01 T10431043  RH  100%=      5-min Rain = 0
KHO1 091248Z 00003KT M04/M04 A3033 RMK A01 T10431043  RH  100%=      5-min Rain = 0
KHO1 091249Z 00003KT M04/M04 A3033 RMK A01 T10421042  RH  100%=      5-min Rain = 0
KHO1 091250Z 01004KT M04/M04 A3033 RMK A01 T10421042  RH  100%=      5-min Rain = 0
KHO1 091251Z 01003KT M04/M04 A3033 RMK A01 T10421042  RH  100%=      5-min Rain = 0
KHO1 091252Z 01004KT M04/M04 A3034 RMK A01 T10421042  RH  100%=      5-min Rain = 0
KHO1 091253Z 01004KT M04/M04 A3034 RMK A01 T10421042  RH  100%=      5-min Rain = 0
KHO1 091254Z 01004KT M04/M04 A3034 RMK A01 T10421042  RH  100%=      5-min Rain = 0
KHO1 091255Z 02005KT M04/M04 A3034 RMK A01 T10421042  RH  100%=      5-min Rain = 0
KHO1 091256Z 02006KT M04/M04 A3034 RMK A01 T10421042  RH  100%=      5-min Rain = 0
KHO1 091257Z 02006KT M04/M04 A3034 RMK A01 T10421042  RH  100%=      5-min Rain = 0
KHO1 091258Z 02005KT M04/M04 A3034 RMK A01 T10421042  RH  100%=      5-min Rain = 0
KHO1 091259Z 02005KT M04/M04 A3034 RMK A01 T10421042  RH  100%=      5-min Rain = 0
KHO1 091300Z 02004KT M04/M04 A3034 RMK A01 T10431043  RH  100%=      5-min Rain = 0
KHO1 091301Z 01005KT M04/M04 A3034 RMK A01 T10431043  RH  100%=      5-min Rain = 0
KHO1 091302Z 01005KT M04/M04 A3034 RMK A01 T10431043  RH  100%=      5-min Rain = 0
KHO1 091303Z 01006KT M04/M04 A3034 RMK A01 T10431043  RH  100%=      5-min Rain = 0
KHO1 091304Z 01006KT M04/M04 A3034 RMK A01 T10431043  RH  100%=      5-min Rain = 0
KHO1 091305Z 01006KT M04/M04 A3034 RMK A01 T10431043  RH  100%=      5-min Rain = 0
KHO1 091306Z 01005KT M04/M04 A3034 RMK A01 T10431043  RH  100%=      5-min Rain = 0
KHO1 091307Z 01006KT M04/M04 A3034 RMK A01 T10431044  RH  100%=      5-min Rain = 0
KHO1 091308Z 01007KT M04/M04 A3034 RMK A01 T10441044  RH  100%=      5-min Rain = 0
KHO1 091309Z 02006KT M05/M05 A3034 RMK A01 T10451045  RH  100%=      5-min Rain = 0
KHO1 091310Z 02006KT M05/M05 A3035 RMK A01 T10451045  RH  100%=      5-min Rain = 0
KHO1 091311Z 01007KT M05/M05 A3034 RMK A01 T10451045  RH  100%=      5-min Rain = 0
KHO1 091312Z 01006KT M05/M05 A3035 RMK A01 T10451045  RH  100%=      5-min Rain = 0
KHO1 091313Z 01006KT M05/M05 A3035 RMK A01 T10451045  RH  100%=      5-min Rain = 0
KHO1 091314Z 01006KT M05/M05 A3035 RMK A01 T10451045  RH  100%=      5-min Rain = 0
KHO1 091315Z 01005KT M05/M05 A3035 RMK A01 T10451045  RH  100%=      5-min Rain = 0
KHO1 091316Z 01006KT M05/M05 A3035 RMK A01 T10451045  RH  100%=      5-min Rain = 0
KHO1 091317Z 01006KT M05/M05 A3035 RMK A01 T10451045  RH  100%=      5-min Rain = 0
KHO1 091318Z 01006KT M05/M05 A3035 RMK A01 T10451045  RH  100%=      5-min Rain = 0
KHO1 091319Z 01006KT M05/M05 A3035 RMK A01 T10451045  RH  100%=      5-min Rain = 0
KHO1 091320Z 01006KT M05/M05 A3035 RMK A01 T10451045  RH  100%=      5-min Rain = 0
KHO1 091321Z 01006KT M05/M05 A3035 RMK A01 T10451045  RH  100%=      5-min Rain = 0
KHO1 091322Z 01006KT M05/M05 A3035 RMK A01 T10451045  RH  100%=      5-min Rain = 0
KHO1 091323Z 01005KT M05/M05 A3035 RMK A01 T10451045  RH  100%=      5-min Rain = 0
KHO1 091324Z 01005KT M05/M05 A3035 RMK A01 T10451045  RH  100%=      5-min Rain = 0
KHO1 091325Z 01005KT M05/M05 A3035 RMK A01 T10451045  RH  100%=      5-min Rain = 0
KHO1 091326Z 36004KT M04/M04 A3035 RMK A01 T10441044  RH  100%=      5-min Rain = 0
KHO1 091327Z 00005KT M04/M04 A3035 RMK A01 T10441044  RH  100%=      5-min Rain = 0
KHO1 091328Z 00005KT M04/M04 A3035 RMK A01 T10441044  RH  100%=      5-min Rain = 0
KHO1 091329Z 00004KT M04/M04 A3035 RMK A01 T10441044  RH  100%=      5-min Rain = 0
KHO1 091330Z 00004KT M04/M04 A3035 RMK A01 T10431043  RH  100%=      5-min Rain = 0
KHO1 091331Z 35004KT M04/M04 A3035 RMK A01 T10431043  RH  100%=      5-min Rain = 0
KHO1 091332Z 35004KT M04/M04 A3035 RMK A01 T10431043  RH  100%=      5-min Rain = 0
KHO1 091333Z 35004KT M04/M04 A3035 RMK A01 T10431043  RH  100%=      5-min Rain = 0
KHO1 091334Z 36003KT M04/M04 A3035 RMK A01 T10431043  RH  100%=      5-min Rain = 0
KHO1 091335Z 00003KT M04/M04 A3035 RMK A01 T10431043  RH  100%=      5-min Rain = 0
KHO1 091336Z 01004KT M04/M04 A3035 RMK A01 T10431043  RH  100%=      5-min Rain = 0
KHO1 091337Z 00003KT M04/M04 A3035 RMK A01 T10421043  RH  100%=      5-min Rain = 0
KHO1 091338Z 36003KT M04/M04 A3035 RMK A01 T10431043  RH  100%=      5-min Rain = 0
KHO1 091339Z 35003KT M04/M04 A3035 RMK A01 T10431043  RH  100%=      5-min Rain = 0
KHO1 091340Z 34003KT M04/M04 A3035 RMK A01 T10431043  RH  100%=      5-min Rain = 0
KHO1 091341Z 34005KT M04/M04 A3035 RMK A01 T10431043  RH  100%=      5-min Rain = 0
KHO1 091342Z 35005KT M04/M04 A3035 RMK A01 T10431043  RH  100%=      5-min Rain = 0
KHO1 091343Z 34005KT M04/M04 A3035 RMK A01 T10421042  RH  100%=      5-min Rain = 0
KHO1 091344Z 34005KT M04/M04 A3035 RMK A01 T10431043  RH  100%=      5-min Rain = 0
KHO1 091345Z 34005KT M04/M04 A3035 RMK A01 T10431043  RH  100%=      5-min Rain = 0
KHO1 091346Z 35005KT M04/M04 A3036 RMK A01 T10431043  RH  100%=      5-min Rain = 0
KHO1 091347Z 34004KT M04/M04 A3036 RMK A01 T10431043  RH  100%=      5-min Rain = 0
KHO1 091348Z 35004KT M04/M04 A3036 RMK A01 T10431043  RH  100%=      5-min Rain = 0
KHO1 091349Z 36003KT M04/M04 A3036 RMK A01 T10421043  RH  100%=      5-min Rain = 0
KHO1 091350Z 36004KT M04/M04 A3036 RMK A01 T10421042  RH  100%=      5-min Rain = 0
KHO1 091351Z 35004KT M04/M04 A3036 RMK A01 T10421042  RH  100%=      5-min Rain = 0
KHO1 091352Z 36005KT M04/M04 A3036 RMK A01 T10421042  RH  100%=      5-min Rain = 0
KHO1 091353Z 35004KT M04/M04 A3036 RMK A01 T10421042  RH  100%=      5-min Rain = 0
KHO1 091354Z 36004KT M04/M04 A3036 RMK A01 T10421042  RH  100%=      5-min Rain = 0
KHO1 091355Z 36005KT M04/M04 A3036 RMK A01 T10421042  RH  100%=      5-min Rain = 0
KHO1 091356Z 35004KT M04/M04 A3036 RMK A01 T10421042  RH  100%=      5-min Rain = 0
KHO1 091357Z 35004KT M04/M04 A3036 RMK A01 T10421042  RH  100%=      5-min Rain = 0
KHO1 091358Z 35004KT M04/M04 A3036 RMK A01 T10421042  RH  100%=      5-min Rain = 0
KHO1 091359Z 35004KT M04/M04 A3036 RMK A01 T10421042  RH  100%=      5-min Rain = 0
KHO1 091400Z 35005KT M04/M04 A3036 RMK A01 T10421042  RH  100%=      5-min Rain = 0
KHO1 091401Z 36005KT M04/M04 A3036 RMK A01 T10421042  RH  100%=      5-min Rain = 0
KHO1 091402Z 35005KT M04/M04 A3036 RMK A01 T10421042  RH  100%=      5-min Rain = 0
KHO1 091403Z 36005KT M04/M04 A3036 RMK A01 T10421042  RH  100%=      5-min Rain = 0
KHO1 091404Z 35005KT M04/M04 A3037 RMK A01 T10421042  RH  100%=      5-min Rain = 0
KHO1 091405Z 35003KT M04/M04 A3037 RMK A01 T10421042  RH  100%=      5-min Rain = 0
KHO1 091406Z 00004KT M04/M04 A3037 RMK A01 T10411041  RH  100%=      5-min Rain = 0
KHO1 091407Z 36004KT M04/M04 A3037 RMK A01 T10411041  RH  100%=      5-min Rain = 0
KHO1 091408Z 35003KT M04/M04 A3037 RMK A01 T10401041  RH  100%=      5-min Rain = 0
KHO1 091409Z 34003KT M04/M04 A3037 RMK A01 T10401040  RH  100%=      5-min Rain = 0
KHO1 091410Z 34004KT M04/M04 A3037 RMK A01 T10401040  RH  100%=      5-min Rain = 0
KHO1 091411Z 35004KT M04/M04 A3037 RMK A01 T10401040  RH  100%=      5-min Rain = 0
KHO1 091412Z 35004KT M04/M04 A3037 RMK A01 T10401040  RH  100%=      5-min Rain = 0
KHO1 091413Z 33004KT M04/M04 A3037 RMK A01 T10401040  RH  100%=      5-min Rain = 0
KHO1 091414Z 33003KT M04/M04 A3037 RMK A01 T10401040  RH  100%=      5-min Rain = 0
KHO1 091415Z 34003KT M04/M04 A3037 RMK A01 T10401040  RH  100%=      5-min Rain = 0
KHO1 091416Z 35003KT M04/M04 A3037 RMK A01 T10401040  RH  100%=      5-min Rain = 0
KHO1 091417Z 34004KT M04/M04 A3037 RMK A01 T10391039  RH  100%=      5-min Rain = 0
KHO1 091418Z 33003KT M04/M04 A3037 RMK A01 T10391039  RH  100%=      5-min Rain = 0
KHO1 091419Z 34004KT M04/M04 A3037 RMK A01 T10401040  RH  100%=      5-min Rain = 0
KHO1 091420Z 34004KT M04/M04 A3037 RMK A01 T10401040  RH  100%=      5-min Rain = 0
KHO1 091421Z 33004KT M04/M04 A3037 RMK A01 T10401040  RH  100%=      5-min Rain = 0
KHO1 091422Z 33003KT M04/M04 A3037 RMK A01 T10401040  RH  100%=      5-min Rain = 0
KHO1 091423Z 34004KT M04/M04 A3037 RMK A01 T10391039  RH  100%=      5-min Rain = 0
KHO1 091424Z 34004KT M04/M04 A3037 RMK A01 T10391039  RH  100%=      5-min Rain = 0
KHO1 091425Z 35004KT M04/M04 A3037 RMK A01 T10391039  RH  100%=      5-min Rain = 0
KHO1 091426Z 34004KT M04/M04 A3038 RMK A01 T10391039  RH  100%=      5-min Rain = 0
KHO1 091427Z 34004KT M04/M04 A3038 RMK A01 T10391039  RH  100%=      5-min Rain = 0
KHO1 091428Z 34004KT M04/M04 A3038 RMK A01 T10391039  RH  100%=      5-min Rain = 0
KHO1 091429Z 35004KT M04/M04 A3038 RMK A01 T10391039  RH  100%=      5-min Rain = 0
KHO1 091430Z 35005KT M04/M04 A3038 RMK A01 T10391039  RH  100%=      5-min Rain = 0
KHO1 091431Z 35004KT M04/M04 A3038 RMK A01 T10381038  RH  100%=      5-min Rain = 0
KHO1 091432Z 36003KT M04/M04 A3038 RMK A01 T10381038  RH  100%=      5-min Rain = 0
KHO1 091433Z 36004KT M04/M04 A3038 RMK A01 T10371037  RH  100%=      5-min Rain = 0
KHO1 091434Z 35004KT M04/M04 A3038 RMK A01 T10371037  RH  100%=      5-min Rain = 0
KHO1 091435Z 35004KT M04/M04 A3038 RMK A01 T10371037  RH  100%=      5-min Rain = 0
KHO1 091436Z 35005KT M04/M04 A3038 RMK A01 T10371037  RH  100%=      5-min Rain = 0
KHO1 091437Z 35004KT M04/M04 A3038 RMK A01 T10371037  RH  100%=      5-min Rain = 0
KHO1 091438Z 35004KT M04/M04 A3038 RMK A01 T10361036  RH  100%=      5-min Rain = 0
KHO1 091439Z 34003KT M04/M04 A3038 RMK A01 T10361036  RH  100%=      5-min Rain = 0
KHO1 091440Z 34004KT M04/M04 A3038 RMK A01 T10361036  RH  100%=      5-min Rain = 0
KHO1 091441Z 34003KT M04/M04 A3038 RMK A01 T10351035  RH  100%=      5-min Rain = 0
KHO1 091442Z 34003KT M04/M04 A3038 RMK A01 T10351035  RH  100%=      5-min Rain = 0
KHO1 091443Z 32003KT M03/M03 A3038 RMK A01 T10341034  RH  100%=      5-min Rain = 0
KHO1 091444Z 33002KT M03/M03 A3038 RMK A01 T10341034  RH  100%=      5-min Rain = 0
KHO1 091445Z 35003KT M03/M03 A3038 RMK A01 T10341034  RH  100%=      5-min Rain = 0
KHO1 091446Z 35004KT M03/M03 A3038 RMK A01 T10341034  RH  100%=      5-min Rain = 0
KHO1 091447Z 36004KT M03/M03 A3038 RMK A01 T10341034  RH  100%=      5-min Rain = 0
KHO1 091448Z 00004KT M03/M03 A3038 RMK A01 T10331033  RH  100%=      5-min Rain = 0
KHO1 091449Z 35004KT M03/M03 A3038 RMK A01 T10321032  RH  100%=      5-min Rain = 0
KHO1 091450Z 35004KT M03/M03 A3038 RMK A01 T10321032  RH  100%=      5-min Rain = 0
KHO1 091451Z 35004KT M03/M03 A3038 RMK A01 T10321032  RH  100%=      5-min Rain = 0
KHO1 091452Z 35004KT M03/M03 A3038 RMK A01 T10321032  RH  100%=      5-min Rain = 0
KHO1 091453Z 34004KT M03/M03 A3038 RMK A01 T10311031  RH  100%=      5-min Rain = 0
KHO1 091454Z 34004KT M03/M03 A3038 RMK A01 T10301030  RH  100%=      5-min Rain = 0
KHO1 091455Z 34004KT M03/M03 A3038 RMK A01 T10301030  RH  100%=      5-min Rain = 0
KHO1 091456Z 34004KT M03/M03 A3038 RMK A01 T10301030  RH  100%=      5-min Rain = 0
KHO1 091457Z 34004KT M03/M03 A3038 RMK A01 T10291029  RH  100%=      5-min Rain = 0
KHO1 091458Z 34005KT M03/M03 A3038 RMK A01 T10281029  RH  100%=      5-min Rain = 0
KHO1 091459Z 34004KT M03/M03 A3039 RMK A01 T10281028  RH  100%=      5-min Rain = 0
KHO1 091500Z 34004KT M03/M03 A3039 RMK A01 T10271027  RH  100%=      5-min Rain = 0
KHO1 091501Z 34004KT M03/M03 A3039 RMK A01 T10271027  RH  100%=      5-min Rain = 0
KHO1 091502Z 33003KT M03/M03 A3039 RMK A01 T10271027  RH  100%=      5-min Rain = 0
KHO1 091503Z 34004KT M03/M03 A3039 RMK A01 T10271027  RH  100%=      5-min Rain = 0
KHO1 091504Z 33004KT M03/M03 A3039 RMK A01 T10261026  RH  100%=      5-min Rain = 0
KHO1 091505Z 33005KT M03/M03 A3039 RMK A01 T10261026  RH  100%=      5-min Rain = 0
KHO1 091506Z 32004KT M03/M03 A3039 RMK A01 T10261026  RH  100%=      5-min Rain = 0
KHO1 091507Z 32004KT M03/M03 A3039 RMK A01 T10261026  RH  100%=      5-min Rain = 0
KHO1 091508Z 32005KT M03/M03 A3039 RMK A01 T10251025  RH  100%=      5-min Rain = 0
KHO1 091509Z 31005KT M03/M03 A3039 RMK A01 T10251025  RH  100%=      5-min Rain = 0
KHO1 091510Z 32005KT M02/M02 A3039 RMK A01 T10241024  RH  100%=      5-min Rain = 0
KHO1 091511Z 32005KT M02/M02 A3039 RMK A01 T10241024  RH  100%=      5-min Rain = 0
KHO1 091512Z 32003KT M02/M03 A3039 RMK A01 T10241025  RH  100%=      5-min Rain = 0
KHO1 091513Z 32004KT M02/M02 A3039 RMK A01 T10241024  RH  100%=      5-min Rain = 0
KHO1 091514Z 32005KT M02/M02 A3039 RMK A01 T10241024  RH  100%=      5-min Rain = 0
KHO1 091515Z 32005KT M02/M02 A3039 RMK A01 T10241024  RH  100%=      5-min Rain = 0
KHO1 091516Z 32004KT M02/M02 A3039 RMK A01 T10241024  RH  100%=      5-min Rain = 0
KHO1 091517Z 32005KT M02/M02 A304 RMK A01 T10231023  RH  100%=      5-min Rain = 0
KHO1 091518Z 32004KT M02/M02 A304 RMK A01 T10221022  RH  100%=      5-min Rain = 0
KHO1 091519Z 32004KT M02/M02 A304 RMK A01 T10221022  RH  100%=      5-min Rain = 0
KHO1 091520Z 32004KT M02/M02 A304 RMK A01 T10221022  RH  100%=      5-min Rain = 0
KHO1 091521Z 33004KT M02/M02 A304 RMK A01 T10221022  RH  100%=      5-min Rain = 0
KHO1 091522Z 32004KT M02/M02 A304 RMK A01 T10211021  RH  100%=      5-min Rain = 0
KHO1 091523Z 32004KT M02/M02 A304 RMK A01 T10211021  RH  100%=      5-min Rain = 0
KHO1 091524Z 33004KT M02/M02 A304 RMK A01 T10211021  RH  100%=      5-min Rain = 0
KHO1 091525Z 32003KT M02/M02 A304 RMK A01 T10211021  RH  100%=      5-min Rain = 0
KHO1 091526Z 33003KT M02/M02 A304 RMK A01 T10201020  RH  100%=      5-min Rain = 0
KHO1 091527Z 32003KT M02/M02 A304 RMK A01 T10201020  RH  100%=      5-min Rain = 0
KHO1 091528Z 34003KT M02/M02 A304 RMK A01 T10201020  RH  100%=      5-min Rain = 0
KHO1 091529Z 33004KT M02/M02 A304 RMK A01 T10191019  RH  100%=      5-min Rain = 0
KHO1 091530Z 34004KT M02/M02 A304 RMK A01 T10191019  RH  100%=      5-min Rain = 0
KHO1 091531Z 34004KT M02/M02 A304 RMK A01 T10191019  RH  100%=      5-min Rain = 0
KHO1 091532Z 34003KT M02/M02 A304 RMK A01 T10191019  RH  100%=      5-min Rain = 0
KHO1 091533Z 35003KT M02/M02 A304 RMK A01 T10191019  RH  100%=      5-min Rain = 0
KHO1 091534Z 33003KT M02/M02 A304 RMK A01 T10181018  RH  100%=      5-min Rain = 0
KHO1 091535Z 34003KT M02/M02 A304 RMK A01 T10181018  RH  100%=      5-min Rain = 0
KHO1 091536Z 33003KT M02/M02 A304 RMK A01 T10171017  RH  100%=      5-min Rain = 0
KHO1 091537Z 33003KT M02/M02 A304 RMK A01 T10171017  RH  100%=      5-min Rain = 0
KHO1 091538Z 33002KT M02/M02 A304 RMK A01 T10171017  RH  100%=      5-min Rain = 0
KHO1 091539Z 33002KT M02/M02 A304 RMK A01 T10171017  RH  100%=      5-min Rain = 0
KHO1 091540Z 31002KT M02/M02 A304 RMK A01 T10171017  RH  100%=      5-min Rain = 0
KHO1 091541Z 32002KT M02/M02 A304 RMK A01 T10171017  RH  100%=      5-min Rain = 0
KHO1 091542Z 34001KT M02/M02 A304 RMK A01 T10171017  RH  100%=      5-min Rain = 0
KHO1 091543Z 33002KT M02/M02 A304 RMK A01 T10161016  RH  100%=      5-min Rain = 0
KHO1 091544Z 32002KT M02/M02 A304 RMK A01 T10161016  RH  100%=      5-min Rain = 0
KHO1 091545Z 33002KT M02/M02 A3041 RMK A01 T10161016  RH  100%=      5-min Rain = 0
KHO1 091546Z 34001KT M02/M02 A3041 RMK A01 T10151015  RH  100%=      5-min Rain = 0
KHO1 091547Z 34002KT M02/M02 A3041 RMK A01 T10151015  RH  100%=      5-min Rain = 0
KHO1 091548Z 32001KT M01/M01 A3041 RMK A01 T10141014  RH  100%=      5-min Rain = 0
KHO1 091549Z 33002KT M01/M01 A3041 RMK A01 T10141014  RH  100%=      5-min Rain = 0
KHO1 091550Z 32002KT M01/M01 A3041 RMK A01 T10141014  RH  100%=      5-min Rain = 0
KHO1 091551Z 31001KT M01/M01 A3041 RMK A01 T10141014  RH  100%=      5-min Rain = 0
KHO1 091552Z 32002KT M01/M01 A3041 RMK A01 T10141014  RH  100%=      5-min Rain = 0
KHO1 091553Z 32002KT M01/M01 A3041 RMK A01 T10141014  RH  100%=      5-min Rain = 0
KHO1 091554Z 33001KT M01/M01 A3041 RMK A01 T10141014  RH  100%=      5-min Rain = 0
KHO1 091555Z 32001KT M01/M01 A3041 RMK A01 T10131013  RH  100%=      5-min Rain = 0
KHO1 091556Z 32001KT M01/M01 A3041 RMK A01 T10131013  RH  100%=      5-min Rain = 0
KHO1 091557Z 32001KT M01/M01 A3041 RMK A01 T10121012  RH  100%=      5-min Rain = 0
KHO1 091558Z 31002KT M01/M01 A3041 RMK A01 T10121012  RH  100%=      5-min Rain = 0
KHO1 091559Z 31002KT M01/M01 A3041 RMK A01 T10121012  RH  100%=      5-min Rain = 0
KHO1 091600Z 31002KT M01/M01 A3041 RMK A01 T10121012  RH  100%=      5-min Rain = 0
KHO1 091601Z 31001KT M01/M01 A3041 RMK A01 T10111011  RH  100%=      5-min Rain = 0
KHO1 091602Z 32001KT M01/M01 A3041 RMK A01 T10111011  RH  100%=      5-min Rain = 0
KHO1 091603Z 31002KT M01/M01 A3041 RMK A01 T10111011  RH  100%=      5-min Rain = 0
KHO1 091604Z 32002KT M01/M01 A3041 RMK A01 T10111011  RH  100%=      5-min Rain = 0
KHO1 091605Z 31001KT M01/M01 A3041 RMK A01 T10101010  RH  100%=      5-min Rain = 0
KHO1 091606Z 31002KT M01/M01 A3041 RMK A01 T10101010  RH  100%=      5-min Rain = 0
KHO1 091607Z 31001KT M01/M01 A3041 RMK A01 T10091009  RH  100%=      5-min Rain = 0
KHO1 091608Z 33001KT M01/M01 A3041 RMK A01 T10091009  RH  100%=      5-min Rain = 0
KHO1 091609Z 32001KT M01/M01 A3041 RMK A01 T10091009  RH  100%=      5-min Rain = 0
KHO1 091610Z 31001KT M01/M01 A3041 RMK A01 T10081008  RH  100%=      5-min Rain = 0
KHO1 091611Z 34001KT M01/M01 A3041 RMK A01 T10081008  RH  100%=      5-min Rain = 0
KHO1 091612Z 34001KT M01/M01 A3041 RMK A01 T10081008  RH  100%=      5-min Rain = 0
KHO1 091613Z 34001KT M01/M01 A3041 RMK A01 T10081008  RH  100%=      5-min Rain = 0
KHO1 091614Z 34001KT M01/M01 A3041 RMK A01 T10081008  RH  100%=      5-min Rain = 0
KHO1 091615Z 34001KT M01/M01 A3041 RMK A01 T10081008  RH  100%=      5-min Rain = 0
KHO1 091616Z 34002KT M01/M01 A3041 RMK A01 T10081008  RH  100%=      5-min Rain = 0
KHO1 091617Z 34001KT M01/M01 A3041 RMK A01 T10081008  RH  100%=      5-min Rain = 0
KHO1 091618Z 34002KT M01/M01 A3041 RMK A01 T10081008  RH  100%=      5-min Rain = 0
KHO1 091619Z 34002KT M01/M01 A3041 RMK A01 T10081008  RH  100%=      5-min Rain = 0
KHO1 091620Z 34001KT M01/M01 A3041 RMK A01 T10081008  RH  100%=      5-min Rain = 0
KHO1 091621Z 34001KT M01/M01 A3041 RMK A01 T10071007  RH  100%=      5-min Rain = 0
KHO1 091622Z 34002KT M01/M01 A3042 RMK A01 T10071007  RH  100%=      5-min Rain = 0
KHO1 091623Z 34001KT M01/M01 A3041 RMK A01 T10071007  RH  100%=      5-min Rain = 0
KHO1 091624Z 34001KT M01/M01 A3041 RMK A01 T10061006  RH  100%=      5-min Rain = 0
KHO1 091625Z 34001KT M01/M01 A3041 RMK A01 T10061006  RH  100%=      5-min Rain = 0
KHO1 091626Z 34001KT M01/M01 A3041 RMK A01 T10061006  RH  100%=      5-min Rain = 0
KHO1 091627Z 34000KT M01/M01 A3041 RMK A01 T10051005  RH  100%=      5-min Rain = 0
KHO1 091628Z 35001KT M01/M01 A3041 RMK A01 T10051005  RH  100%=      5-min Rain = 0
KHO1 091629Z 35000KT M01/M01 A3041 RMK A01 T10051005  RH  100%=      5-min Rain = 0
KHO1 091630Z 35000KT M01/M01 A3041 RMK A01 T10051005  RH  100%=      5-min Rain = 0
KHO1 091631Z 33001KT M00/M00 A3041 RMK A01 T10041004  RH  100%=      5-min Rain = 0
KHO1 091632Z 36001KT M00/M00 A3041 RMK A01 T10041004  RH  100%=      5-min Rain = 0
KHO1 091633Z 35001KT M00/M00 A3041 RMK A01 T10041004  RH  100%=      5-min Rain = 0
KHO1 091634Z 34001KT M00/M00 A3041 RMK A01 T10041004  RH  100%=      5-min Rain = 0
KHO1 091635Z 31001KT M00/M00 A3041 RMK A01 T10031003  RH  100%=      5-min Rain = 0
KHO1 091636Z 32002KT M00/M00 A3041 RMK A01 T10031003  RH  100%=      5-min Rain = 0
KHO1 091637Z 32001KT M00/M00 A3041 RMK A01 T10031003  RH  100%=      5-min Rain = 0
KHO1 091638Z 33002KT M00/M00 A3041 RMK A01 T10031003  RH  100%=      5-min Rain = 0
KHO1 091639Z 34002KT M00/M00 A3041 RMK A01 T10021002  RH  100%=      5-min Rain = 0
KHO1 091640Z 34002KT M00/M00 A3041 RMK A01 T10021002  RH  100%=      5-min Rain = 0
KHO1 091641Z 35002KT M00/M00 A3041 RMK A01 T10021002  RH  100%=      5-min Rain = 0
KHO1 091642Z 33002KT M00/M00 A3041 RMK A01 T10021002  RH  100%=      5-min Rain = 0
KHO1 091643Z 35002KT M00/M00 A3041 RMK A01 T10021002  RH  100%=      5-min Rain = 0
KHO1 091644Z 34002KT M00/M00 A3041 RMK A01 T10011001  RH  100%=      5-min Rain = 0
KHO1 091645Z 34002KT M00/M00 A3041 RMK A01 T10011001  RH  100%=      5-min Rain = 0
KHO1 091646Z 34001KT M00/M00 A3041 RMK A01 T10011001  RH  100%=      5-min Rain = 0
KHO1 091647Z 01002KT M00/M00 A3041 RMK A01 T10011001  RH  100%=      5-min Rain = 0
KHO1 091648Z 36002KT M00/M00 A3041 RMK A01 T10011001  RH  100%=      5-min Rain = 0
KHO1 091649Z 00001KT 00/00 A3041 RMK A01 T00-000-0  RH  100%=      5-min Rain = 0
KHO1 091650Z 33001KT 00/00 A3041 RMK A01 T00-000-0  RH  100%=      5-min Rain = 0
KHO1 091651Z 31001KT 00/00 A3041 RMK A01 T00000000  RH  100%=      5-min Rain = 0
KHO1 091652Z 31001KT 00/00 A3041 RMK A01 T00010001  RH  100%=      5-min Rain = 0
KHO1 091653Z 30001KT 00/00 A3041 RMK A01 T00010001  RH  100%=      5-min Rain = 0
KHO1 091654Z 30002KT 00/00 A3041 RMK A01 T00010001  RH  100%=      5-min Rain = 0
KHO1 091655Z 31002KT 00/00 A3041 RMK A01 T00020002  RH  100%=      5-min Rain = 0
KHO1 091656Z 31002KT 00/00 A3041 RMK A01 T00020002  RH  100%=      5-min Rain = 0
KHO1 091657Z 31002KT 00/00 A3041 RMK A01 T00030003  RH  100%=      5-min Rain = 0
KHO1 091658Z 33002KT 00/00 A3041 RMK A01 T00040004  RH  100%=      5-min Rain = 0
KHO1 091659Z 32003KT 01/01 A3041 RMK A01 T00050005  RH  100%=      5-min Rain = 0
KHO1 091700Z 32004KT 01/01 A3041 RMK A01 T00060006  RH  100%=      5-min Rain = 0
KHO1 091701Z 32004KT 01/01 A3041 RMK A01 T00060006  RH  100%=      5-min Rain = 0
KHO1 091702Z 32003KT 01/01 A3041 RMK A01 T00060006  RH  100%=      5-min Rain = 0
KHO1 091703Z 32004KT 01/01 A3041 RMK A01 T00060006  RH  100%=      5-min Rain = 0
KHO1 091704Z 33004KT 01/01 A3041 RMK A01 T00070007  RH  100%=      5-min Rain = 0
KHO1 091705Z 32004KT 01/01 A3041 RMK A01 T00070007  RH  100%=      5-min Rain = 0
KHO1 091706Z 32004KT 01/01 A3041 RMK A01 T00080008  RH  100%=      5-min Rain = 0
KHO1 091707Z 32003KT 01/01 A3041 RMK A01 T00090009  RH  100%=      5-min Rain = 0
KHO1 091708Z 32004KT 01/01 A3041 RMK A01 T00100010  RH  100%=      5-min Rain = 0
KHO1 091709Z 32003KT 01/01 A3041 RMK A01 T00100010  RH  100%=      5-min Rain = 0
KHO1 091710Z 33003KT 01/01 A3041 RMK A01 T00100010  RH  100%=      5-min Rain = 0
KHO1 091711Z 33003KT 01/01 A3041 RMK A01 T00120012  RH  100%=      5-min Rain = 0
KHO1 091712Z 34004KT 01/01 A3041 RMK A01 T00130013  RH  100%=      5-min Rain = 0
KHO1 091713Z 32004KT 01/01 A3041 RMK A01 T00130013  RH  100%=      5-min Rain = 0
KHO1 091714Z 33004KT 01/01 A3041 RMK A01 T00130013  RH  100%=      5-min Rain = 0
KHO1 091715Z 32004KT 01/01 A3041 RMK A01 T00140014  RH  100%=      5-min Rain = 0
KHO1 091716Z 32004KT 01/01 A3041 RMK A01 T00140014  RH  100%=      5-min Rain = 0
KHO1 091717Z 32004KT 01/01 A3041 RMK A01 T00140014  RH  100%=      5-min Rain = 0
KHO1 091718Z 32004KT 01/01 A3041 RMK A01 T00140014  RH  100%=      5-min Rain = 0
KHO1 091719Z 32004KT 01/01 A3041 RMK A01 T00140014  RH  100%=      5-min Rain = 0
KHO1 091720Z 30003KT 01/01 A3041 RMK A01 T00140014  RH  100%=      5-min Rain = 0
KHO1 091721Z 31004KT 02/02 A3041 RMK A01 T00160016  RH  100%=      5-min Rain = 0
KHO1 091722Z 31003KT 02/02 A3041 RMK A01 T00160016  RH  100%=      5-min Rain = 0
KHO1 091723Z 32004KT 02/02 A3041 RMK A01 T00160016  RH  100%=      5-min Rain = 0
KHO1 091724Z 32004KT 02/02 A3041 RMK A01 T00160016  RH  100%=      5-min Rain = 0
KHO1 091725Z 31003KT 02/02 A3041 RMK A01 T00150015  RH  100%=      5-min Rain = 0
KHO1 091726Z 31004KT 02/02 A3041 RMK A01 T00160016  RH  100%=      5-min Rain = 0
KHO1 091727Z 31003KT 02/02 A3041 RMK A01 T00150015  RH  100%=      5-min Rain = 0
KHO1 091728Z 32003KT 02/02 A3041 RMK A01 T00170017  RH  100%=      5-min Rain = 0
KHO1 091729Z 34002KT 02/02 A3041 RMK A01 T00180018  RH  100%=      5-min Rain = 0
KHO1 091730Z 32003KT 02/02 A3041 RMK A01 T00180018  RH  100%=      5-min Rain = 0
KHO1 091731Z 32002KT 02/02 A3041 RMK A01 T00170017  RH  100%=      5-min Rain = 0
KHO1 091732Z 30003KT 02/02 A3041 RMK A01 T00170017  RH  100%=      5-min Rain = 0
KHO1 091733Z 29003KT 02/02 A3041 RMK A01 T00170017  RH  100%=      5-min Rain = 0
KHO1 091734Z 30003KT 02/02 A3041 RMK A01 T00170017  RH  100%=      5-min Rain = 0
KHO1 091735Z 30003KT 02/02 A3041 RMK A01 T00180018  RH  100%=      5-min Rain = 0
KHO1 091736Z 29003KT 02/02 A3041 RMK A01 T00180018  RH  100%=      5-min Rain = 0
KHO1 091737Z 29003KT 02/02 A3041 RMK A01 T00180018  RH  100%=      5-min Rain = 0
KHO1 091738Z 29003KT 02/02 A3041 RMK A01 T00180018  RH  100%=      5-min Rain = 0
KHO1 091739Z 30002KT 02/02 A3041 RMK A01 T00180018  RH  100%=      5-min Rain = 0
KHO1 091740Z 30003KT 02/02 A3041 RMK A01 T00180018  RH  100%=      5-min Rain = 0
KHO1 091741Z 31004KT 02/02 A3041 RMK A01 T00180018  RH  100%=      5-min Rain = 0
KHO1 091742Z 31003KT 02/02 A3041 RMK A01 T00190019  RH  100%=      5-min Rain = 0
KHO1 091743Z 29002KT 02/02 A3041 RMK A01 T00200020  RH  100%=      5-min Rain = 0
KHO1 091744Z 26003KT 02/02 A3041 RMK A01 T00200020  RH  100%=      5-min Rain = 0
KHO1 091745Z 27002KT 02/02 A3041 RMK A01 T00180018  RH  100%=      5-min Rain = 0
KHO1 091746Z 29002KT 02/02 A3041 RMK A01 T00170017  RH  100%=      5-min Rain = 0
KHO1 091747Z 28002KT 02/02 A3041 RMK A01 T00170017  RH  100%=      5-min Rain = 0
KHO1 091748Z 29001KT 02/02 A3041 RMK A01 T00170017  RH  100%=      5-min Rain = 0
KHO1 091749Z 29001KT 02/02 A304 RMK A01 T00180018  RH  100%=      5-min Rain = 0
KHO1 091750Z 30001KT 02/02 A304 RMK A01 T00180018  RH  100%=      5-min Rain = 0
KHO1 091751Z 30001KT 02/02 A304 RMK A01 T00180018  RH  100%=      5-min Rain = 0
KHO1 091752Z 30001KT 02/02 A304 RMK A01 T00180018  RH  100%=      5-min Rain = 0
KHO1 091753Z 30001KT 02/02 A304 RMK A01 T00180018  RH  100%=      5-min Rain = 0
KHO1 091754Z 31001KT 02/02 A304 RMK A01 T00190019  RH  100%=      5-min Rain = 0
KHO1 091755Z 29002KT 02/02 A304 RMK A01 T00210021  RH  100%=      5-min Rain = 0
KHO1 091756Z 26001KT 02/02 A304 RMK A01 T00210021  RH  100%=      5-min Rain = 0
KHO1 091757Z 28002KT 02/02 A304 RMK A01 T00200020  RH  100%=      5-min Rain = 0
KHO1 091758Z 28002KT 02/02 A304 RMK A01 T00200020  RH  100%=      5-min Rain = 0
KHO1 091759Z 28002KT 02/02 A304 RMK A01 T00200020  RH  100%=      5-min Rain = 0
KHO1 091800Z 29002KT 02/02 A304 RMK A01 T00210021  RH  100%=      5-min Rain = 0
KHO1 091801Z 29002KT 02/02 A304 RMK A01 T00210021  RH  100%=      5-min Rain = 0
KHO1 091802Z 29001KT 02/02 A304 RMK A01 T00210021  RH  100%=      5-min Rain = 0
KHO1 091803Z 30000KT 02/02 A304 RMK A01 T00210021  RH  100%=      5-min Rain = 0
KHO1 091804Z 30001KT 02/02 A304 RMK A01 T00230023  RH  100%=      5-min Rain = 0
KHO1 091805Z 30002KT 02/02 A304 RMK A01 T00230023  RH  100%=      5-min Rain = 0
KHO1 091806Z 30003KT 02/02 A304 RMK A01 T00230023  RH  100%=      5-min Rain = 0
KHO1 091807Z 29002KT 02/02 A304 RMK A01 T00220022  RH  100%=      5-min Rain = 0
KHO1 091808Z 29002KT 02/02 A304 RMK A01 T00220022  RH  100%=      5-min Rain = 0
KHO1 091809Z 27002KT 02/02 A304 RMK A01 T00220022  RH  100%=      5-min Rain = 0
KHO1 091810Z 27003KT 02/02 A304 RMK A01 T00220022  RH  100%=      5-min Rain = 0
KHO1 091811Z 27002KT 02/02 A304 RMK A01 T00210021  RH  100%=      5-min Rain = 0
KHO1 091812Z 28002KT 02/02 A304 RMK A01 T00220022  RH  100%=      5-min Rain = 0
KHO1 091813Z 29002KT 02/02 A304 RMK A01 T00230023  RH  100%=      5-min Rain = 0
KHO1 091814Z 28002KT 02/02 A304 RMK A01 T00220022  RH  100%=      5-min Rain = 0
KHO1 091815Z 29001KT 02/02 A304 RMK A01 T00210021  RH  100%=      5-min Rain = 0
KHO1 091816Z 24001KT 02/02 A304 RMK A01 T00220022  RH  100%=      5-min Rain = 0
KHO1 091817Z 25002KT 02/02 A304 RMK A01 T00230023  RH  100%=      5-min Rain = 0
KHO1 091818Z 24001KT 02/02 A304 RMK A01 T00230023  RH  100%=      5-min Rain = 0
KHO1 091819Z 26001KT 02/02 A304 RMK A01 T00240024  RH  100%=      5-min Rain = 0
KHO1 091820Z 24002KT 03/03 A3039 RMK A01 T00250025  RH  100%=      5-min Rain = 0
KHO1 091821Z 19003KT 03/03 A3039 RMK A01 T00250025  RH  100%=      5-min Rain = 0
KHO1 091822Z 20002KT 02/02 A3039 RMK A01 T00230023  RH  100%=      5-min Rain = 0
KHO1 091823Z 22001KT 02/02 A3039 RMK A01 T00220022  RH  100%=      5-min Rain = 0
KHO1 091824Z 25002KT 02/02 A3039 RMK A01 T00230023  RH  100%=      5-min Rain = 0
KHO1 091825Z 25002KT 02/02 A3039 RMK A01 T00240024  RH  100%=      5-min Rain = 0
KHO1 091826Z 24003KT 02/02 A3039 RMK A01 T00240024  RH  100%=      5-min Rain = 0
KHO1 091827Z 23003KT 02/02 A3039 RMK A01 T00230023  RH  100%=      5-min Rain = 0
KHO1 091828Z 23002KT 02/02 A3039 RMK A01 T00220022  RH  100%=      5-min Rain = 0
KHO1 091829Z 22002KT 02/02 A3039 RMK A01 T00210021  RH  100%=      5-min Rain = 0
KHO1 091830Z 21001KT 02/02 A3039 RMK A01 T00220022  RH  100%=      5-min Rain = 0
KHO1 091831Z 23002KT 02/02 A3039 RMK A01 T00230023  RH  100%=      5-min Rain = 0
KHO1 091832Z 23003KT 02/02 A3039 RMK A01 T00230023  RH  100%=      5-min Rain = 0
KHO1 091833Z 22002KT 02/02 A3039 RMK A01 T00240024  RH  100%=      5-min Rain = 0
KHO1 091834Z 21002KT 02/02 A3038 RMK A01 T00240024  RH  100%=      5-min Rain = 0
KHO1 091835Z 25001KT 03/03 A3038 RMK A01 T00250025  RH  100%=      5-min Rain = 0
KHO1 091836Z 23003KT 03/03 A3038 RMK A01 T00260026  RH  100%=      5-min Rain = 0
KHO1 091837Z 24003KT 03/03 A3038 RMK A01 T00250025  RH  100%=      5-min Rain = 0
KHO1 091838Z 24002KT 02/02 A3038 RMK A01 T00240024  RH  100%=      5-min Rain = 0
KHO1 091839Z 26003KT 02/02 A3038 RMK A01 T00240024  RH  100%=      5-min Rain = 0
KHO1 091840Z 27003KT 02/02 A3038 RMK A01 T00240024  RH  100%=      5-min Rain = 0
KHO1 091841Z 30002KT 03/03 A3038 RMK A01 T00250025  RH  100%=      5-min Rain = 0
KHO1 091842Z 25001KT 03/03 A3038 RMK A01 T00260026  RH  100%=      5-min Rain = 0
KHO1 091843Z 26001KT 03/03 A3038 RMK A01 T00260026  RH  100%=      5-min Rain = 0
KHO1 091844Z 25002KT 03/03 A3038 RMK A01 T00270027  RH  100%=      5-min Rain = 0
KHO1 091845Z 21002KT 03/03 A3038 RMK A01 T00280028  RH  100%=      5-min Rain = 0
KHO1 091846Z 20003KT 03/03 A3038 RMK A01 T00280028  RH  100%=      5-min Rain = 0
KHO1 091847Z 20003KT 03/03 A3038 RMK A01 T00270027  RH  100%=      5-min Rain = 0
KHO1 091848Z 21002KT 03/03 A3038 RMK A01 T00270027  RH  100%=      5-min Rain = 0
KHO1 091849Z 21001KT 03/03 A3038 RMK A01 T00270027  RH  100%=      5-min Rain = 0
KHO1 091850Z 20002KT 03/03 A3038 RMK A01 T00270027  RH  100%=      5-min Rain = 0
KHO1 091851Z 18003KT 03/03 A3038 RMK A01 T00270027  RH  100%=      5-min Rain = 0
KHO1 091852Z 20002KT 03/03 A3038 RMK A01 T00280028  RH  100%=      5-min Rain = 0
KHO1 091853Z 24002KT 03/03 A3038 RMK A01 T00280028  RH  100%=      5-min Rain = 0
KHO1 091854Z 22003KT 03/03 A3038 RMK A01 T00280028  RH  100%=      5-min Rain = 0
KHO1 091855Z 24003KT 03/03 A3038 RMK A01 T00270027  RH  100%=      5-min Rain = 0
KHO1 091856Z 25002KT 03/03 A3038 RMK A01 T00270027  RH  100%=      5-min Rain = 0
KHO1 091857Z 27003KT 03/03 A3038 RMK A01 T00270027  RH  100%=      5-min Rain = 0
KHO1 091858Z 25003KT 03/03 A3038 RMK A01 T00280028  RH  100%=      5-min Rain = 0
KHO1 091859Z 26002KT 03/03 A3037 RMK A01 T00280028  RH  100%=      5-min Rain = 0
KHO1 091900Z 28002KT 03/03 A3037 RMK A01 T00280028  RH  100%=      5-min Rain = 0
KHO1 091901Z 27002KT 03/03 A3037 RMK A01 T00290029  RH  100%=      5-min Rain = 0
KHO1 091902Z 27002KT 03/03 A3037 RMK A01 T00300030  RH  100%=      5-min Rain = 0
KHO1 091903Z 27003KT 03/03 A3037 RMK A01 T00310031  RH  100%=      5-min Rain = 0
KHO1 091904Z 27003KT 03/03 A3037 RMK A01 T00300030  RH  100%=      5-min Rain = 0
KHO1 091905Z 27003KT 03/03 A3037 RMK A01 T00300030  RH  100%=      5-min Rain = 0
KHO1 091906Z 25003KT 03/03 A3037 RMK A01 T00290029  RH  100%=      5-min Rain = 0
KHO1 091907Z 26002KT 03/03 A3037 RMK A01 T00280028  RH  100%=      5-min Rain = 0
KHO1 091908Z 23003KT 03/03 A3037 RMK A01 T00280029  RH  100%=      5-min Rain = 0
KHO1 091909Z 23001KT 03/03 A3037 RMK A01 T00280028  RH  100%=      5-min Rain = 0
KHO1 091910Z 27002KT 03/03 A3037 RMK A01 T00290029  RH  100%=      5-min Rain = 0
KHO1 091911Z 25002KT 03/03 A3037 RMK A01 T00290029  RH  100%=      5-min Rain = 0
KHO1 091912Z 27002KT 03/03 A3037 RMK A01 T00290029  RH  100%=      5-min Rain = 0
KHO1 091913Z 30003KT 03/03 A3037 RMK A01 T00300030  RH  100%=      5-min Rain = 0
KHO1 091914Z 29003KT 03/03 A3037 RMK A01 T00310031  RH  100%=      5-min Rain = 0
KHO1 091915Z 28003KT 03/03 A3037 RMK A01 T00300030  RH  100%=      5-min Rain = 0
KHO1 091916Z 26003KT 03/03 A3037 RMK A01 T00290029  RH  100%=      5-min Rain = 0
KHO1 091917Z 26002KT 03/03 A3037 RMK A01 T00290028  RH  099%=      5-min Rain = 0
KHO1 091918Z 28002KT 03/03 A3037 RMK A01 T00300028  RH  099%=      5-min Rain = 0
KHO1 091919Z 29002KT 03/03 A3037 RMK A01 T00300028  RH  098%=      5-min Rain = 0
KHO1 091920Z 24002KT 03/03 A3037 RMK A01 T00310028  RH  098%=      5-min Rain = 0
KHO1 091921Z 24003KT 03/03 A3037 RMK A01 T00310027  RH  097%=      5-min Rain = 0
KHO1 091922Z 24002KT 03/03 A3037 RMK A01 T00310027  RH  097%=      5-min Rain = 0
KHO1 091923Z 25002KT 03/03 A3037 RMK A01 T00320027  RH  097%=      5-min Rain = 0
KHO1 091924Z 22002KT 03/03 A3037 RMK A01 T00310025  RH  096%=      5-min Rain = 0
KHO1 091925Z 24002KT 03/03 A3037 RMK A01 T00310025  RH  096%=      5-min Rain = 0
KHO1 091926Z 21002KT 03/03 A3036 RMK A01 T00330027  RH  096%=      5-min Rain = 0
KHO1 091927Z 25003KT 03/03 A3036 RMK A01 T00340028  RH  096%=      5-min Rain = 0
KHO1 091928Z 22002KT 03/03 A3037 RMK A01 T00340028  RH  096%=      5-min Rain = 0
KHO1 091929Z 22003KT 03/03 A3037 RMK A01 T00340026  RH  095%=      5-min Rain = 0
KHO1 091930Z 22003KT 03/02 A3036 RMK A01 T00330024  RH  094%=      5-min Rain = 0
KHO1 091931Z 20002KT 03/02 A3036 RMK A01 T00330023  RH  093%=      5-min Rain = 0
KHO1 091932Z 19002KT 03/03 A3036 RMK A01 T00340025  RH  094%=      5-min Rain = 0
KHO1 091933Z 18002KT 03/03 A3036 RMK A01 T00340025  RH  094%=      5-min Rain = 0
KHO1 091934Z 19002KT 03/02 A3036 RMK A01 T00340024  RH  093%=      5-min Rain = 0
KHO1 091935Z 19002KT 03/02 A3036 RMK A01 T00330023  RH  093%=      5-min Rain = 0
KHO1 091936Z 18001KT 04/03 A3036 RMK A01 T00350025  RH  093%=      5-min Rain = 0
KHO1 091937Z 18003KT 04/03 A3036 RMK A01 T00370027  RH  094%=      5-min Rain = 0
KHO1 091938Z 20004KT 04/03 A3036 RMK A01 T00380027  RH  093%=      5-min Rain = 0
KHO1 091939Z 19003KT 04/03 A3036 RMK A01 T00380026  RH  092%=      5-min Rain = 0
KHO1 091940Z 16003KT 04/02 A3036 RMK A01 T00360022  RH  090%=      5-min Rain = 0
KHO1 091941Z 17002KT 04/02 A3036 RMK A01 T00360021  RH  090%=      5-min Rain = 0
KHO1 091942Z 19004KT 04/02 A3036 RMK A01 T00370022  RH  090%=      5-min Rain = 0
KHO1 091943Z 21005KT 04/02 A3036 RMK A01 T00380023  RH  090%=      5-min Rain = 0
KHO1 091944Z 21004KT 04/02 A3036 RMK A01 T00390022  RH  089%=      5-min Rain = 0
KHO1 091945Z 21002KT 04/02 A3036 RMK A01 T00390021  RH  088%=      5-min Rain = 0
KHO1 091946Z 22003KT 04/02 A3036 RMK A01 T00390020  RH  087%=      5-min Rain = 0
KHO1 091947Z 20003KT 04/02 A3036 RMK A01 T00410023  RH  088%=      5-min Rain = 0
KHO1 091948Z 18003KT 04/02 A3036 RMK A01 T00410020  RH  086%=      5-min Rain = 0
KHO1 091949Z 20003KT 04/02 A3036 RMK A01 T00410017  RH  084%=      5-min Rain = 0
KHO1 091950Z 20004KT 04/02 A3036 RMK A01 T00420019  RH  085%=      5-min Rain = 0
KHO1 091951Z 18004KT 04/02 A3036 RMK A01 T00420016  RH  083%=      5-min Rain = 0
KHO1 091952Z 18003KT 04/01 A3036 RMK A01 T00410014  RH  083%=      5-min Rain = 0
KHO1 091953Z 18004KT 04/01 A3036 RMK A01 T00420014  RH  082%=      5-min Rain = 0
KHO1 091954Z 18004KT 04/01 A3036 RMK A01 T00410012  RH  082%=      5-min Rain = 0
KHO1 091955Z 19003KT 04/01 A3036 RMK A01 T00400011  RH  081%=      5-min Rain = 0
KHO1 091956Z 21004KT 04/01 A3036 RMK A01 T00410014  RH  082%=      5-min Rain = 0
KHO1 091957Z 22003KT 04/01 A3036 RMK A01 T00410011  RH  081%=      5-min Rain = 0
KHO1 091958Z 23003KT 04/01 A3036 RMK A01 T00400009  RH  080%=      5-min Rain = 0
KHO1 091959Z 19003KT 04/01 A3036 RMK A01 T00410012  RH  082%=      5-min Rain = 0
KHO1 092000Z 20003KT 04/01 A3036 RMK A01 T00410011  RH  081%=      5-min Rain = 0
KHO1 092001Z 21003KT 04/01 A3036 RMK A01 T00410010  RH  080%=      5-min Rain = 0
KHO1 092002Z 22003KT 04/01 A3036 RMK A01 T00430014  RH  081%=      5-min Rain = 0
KHO1 092003Z 21003KT 04/01 A3036 RMK A01 T00440014  RH  081%=      5-min Rain = 0
KHO1 092004Z 24002KT 05/01 A3036 RMK A01 T00450014  RH  080%=      5-min Rain = 0
KHO1 092005Z 21003KT 05/01 A3036 RMK A01 T00460014  RH  080%=      5-min Rain = 0
KHO1 092006Z 20004KT 05/02 A3036 RMK A01 T00480015  RH  080%=      5-min Rain = 0
KHO1 092007Z 19003KT 05/02 A3036 RMK A01 T00480016  RH  080%=      5-min Rain = 0
KHO1 092008Z 18004KT 05/02 A3036 RMK A01 T00490015  RH  079%=      5-min Rain = 0
KHO1 092009Z 18004KT 05/01 A3036 RMK A01 T00470011  RH  077%=      5-min Rain = 0
KHO1 092010Z 18002KT 05/01 A3036 RMK A01 T00460009  RH  077%=      5-min Rain = 0
KHO1 092011Z 19002KT 05/01 A3036 RMK A01 T00460011  RH  078%=      5-min Rain = 0
KHO1 092012Z 21002KT 05/01 A3036 RMK A01 T00480013  RH  078%=      5-min Rain = 0
KHO1 092013Z 22004KT 05/01 A3035 RMK A01 T00490014  RH  078%=      5-min Rain = 0
KHO1 092014Z 22004KT 05/01 A3036 RMK A01 T00480008  RH  075%=      5-min Rain = 0
KHO1 092015Z 19004KT 05/01 A3036 RMK A01 T00460008  RH  076%=      5-min Rain = 0
KHO1 092016Z 20004KT 05/01 A3035 RMK A01 T00450010  RH  078%=      5-min Rain = 0
KHO1 092017Z 20004KT 05/01 A3035 RMK A01 T00450011  RH  078%=      5-min Rain = 0
KHO1 092018Z 20003KT 04/01 A3035 RMK A01 T00440010  RH  078%=      5-min Rain = 0
KHO1 092019Z 19002KT 04/01 A3035 RMK A01 T00430007  RH  077%=      5-min Rain = 0
KHO1 092020Z 23002KT 04/01 A3035 RMK A01 T00440010  RH  079%=      5-min Rain = 0
KHO1 092021Z 20002KT 05/01 A3035 RMK A01 T00450012  RH  079%=      5-min Rain = 0
KHO1 092022Z 18003KT 05/01 A3035 RMK A01 T00450011  RH  078%=      5-min Rain = 0
KHO1 092023Z 17004KT 04/01 A3035 RMK A01 T00440008  RH  077%=      5-min Rain = 0
KHO1 092024Z 19003KT 04/01 A3035 RMK A01 T00430008  RH  077%=      5-min Rain = 0
KHO1 092025Z 19002KT 04/01 A3035 RMK A01 T00430007  RH  077%=      5-min Rain = 0
KHO1 092026Z 21002KT 04/01 A3035 RMK A01 T00430007  RH  078%=      5-min Rain = 0
KHO1 092027Z 23001KT 04/01 A3035 RMK A01 T00430007  RH  078%=      5-min Rain = 0
KHO1 092028Z 25000KT 04/01 A3035 RMK A01 T00440010  RH  079%=      5-min Rain = 0
KHO1 092029Z 23001KT 04/01 A3035 RMK A01 T00440011  RH  079%=      5-min Rain = 0
KHO1 092030Z 23001KT 05/01 A3035 RMK A01 T00450009  RH  078%=      5-min Rain = 0
KHO1 092031Z 20001KT 05/01 A3035 RMK A01 T00450008  RH  077%=      5-min Rain = 0
KHO1 092032Z 16001KT 05/01 A3035 RMK A01 T00450009  RH  077%=      5-min Rain = 0
KHO1 092033Z 20001KT 05/01 A3035 RMK A01 T00450008  RH  077%=      5-min Rain = 0
KHO1 092034Z 21002KT 04/01 A3035 RMK A01 T00440007  RH  077%=      5-min Rain = 0
KHO1 092035Z 21002KT 05/01 A3035 RMK A01 T00450010  RH  078%=      5-min Rain = 0
KHO1 092036Z 24003KT 05/01 A3035 RMK A01 T00450010  RH  078%=      5-min Rain = 0
KHO1 092037Z 21004KT 05/01 A3035 RMK A01 T00450013  RH  079%=      5-min Rain = 0
KHO1 092038Z 19002KT 05/01 A3035 RMK A01 T00460014  RH  080%=      5-min Rain = 0
KHO1 092039Z 16003KT 05/02 A3035 RMK A01 T00460015  RH  080%=      5-min Rain = 0
KHO1 092040Z 17004KT 05/01 A3035 RMK A01 T00460012  RH  079%=      5-min Rain = 0
KHO1 092041Z 16002KT 04/01 A3035 RMK A01 T00440008  RH  077%=      5-min Rain = 0
KHO1 092042Z 16003KT 04/01 A3035 RMK A01 T00430009  RH  078%=      5-min Rain = 0
KHO1 092043Z 17003KT 04/01 A3035 RMK A01 T00440012  RH  080%=      5-min Rain = 0
KHO1 092044Z 19002KT 04/01 A3035 RMK A01 T00440011  RH  079%=      5-min Rain = 0
KHO1 092045Z 19003KT 05/01 A3035 RMK A01 T00450012  RH  079%=      5-min Rain = 0
KHO1 092046Z 17003KT 05/02 A3035 RMK A01 T00460016  RH  081%=      5-min Rain = 0
KHO1 092047Z 20002KT 05/01 A3035 RMK A01 T00460014  RH  080%=      5-min Rain = 0
KHO1 092048Z 22003KT 05/01 A3035 RMK A01 T00450009  RH  077%=      5-min Rain = 0
KHO1 092049Z 23003KT 05/01 A3035 RMK A01 T00450011  RH  079%=      5-min Rain = 0
KHO1 092050Z 23003KT 05/01 A3035 RMK A01 T00450011  RH  079%=      5-min Rain = 0
KHO1 092051Z 23003KT 04/01 A3035 RMK A01 T00440009  RH  078%=      5-min Rain = 0
KHO1 092052Z 25002KT 04/01 A3035 RMK A01 T00440010  RH  079%=      5-min Rain = 0
KHO1 092053Z 26002KT 05/01 A3035 RMK A01 T00450013  RH  080%=      5-min Rain = 0
KHO1 092054Z 25003KT 05/02 A3035 RMK A01 T00460016  RH  081%=      5-min Rain = 0
KHO1 092055Z 25003KT 05/01 A3035 RMK A01 T00470013  RH  079%=      5-min Rain = 0
KHO1 092056Z 24003KT 05/01 A3035 RMK A01 T00470014  RH  079%=      5-min Rain = 0
KHO1 092057Z 23002KT 05/01 A3035 RMK A01 T00460011  RH  078%=      5-min Rain = 0
KHO1 092058Z 24002KT 05/01 A3035 RMK A01 T00460010  RH  078%=      5-min Rain = 0
KHO1 092059Z 24003KT 05/01 A3035 RMK A01 T00460013  RH  079%=      5-min Rain = 0
KHO1 092100Z 24003KT 05/02 A3035 RMK A01 T00470015  RH  079%=      5-min Rain = 0
KHO1 092101Z 21003KT 05/02 A3035 RMK A01 T00480016  RH  080%=      5-min Rain = 0
KHO1 092102Z 20003KT 05/01 A3035 RMK A01 T00460010  RH  077%=      5-min Rain = 0
KHO1 092103Z 21003KT 05/01 A3035 RMK A01 T00470012  RH  078%=      5-min Rain = 0
KHO1 092104Z 22002KT 05/01 A3035 RMK A01 T00450007  RH  076%=      5-min Rain = 0
KHO1 092105Z 22002KT 05/01 A3035 RMK A01 T00450007  RH  076%=      5-min Rain = 0
KHO1 092106Z 23001KT 05/01 A3035 RMK A01 T00460009  RH  077%=      5-min Rain = 0
KHO1 092107Z 21002KT 05/01 A3035 RMK A01 T00460008  RH  076%=      5-min Rain = 0
KHO1 092108Z 24002KT 05/01 A3035 RMK A01 T00460010  RH  077%=      5-min Rain = 0
KHO1 092109Z 26003KT 05/01 A3035 RMK A01 T00470009  RH  077%=      5-min Rain = 0
KHO1 092110Z 25003KT 05/01 A3035 RMK A01 T00460008  RH  076%=      5-min Rain = 0
KHO1 092111Z 26003KT 05/01 A3035 RMK A01 T00460007  RH  076%=      5-min Rain = 0
KHO1 092112Z 26002KT 05/01 A3035 RMK A01 T00460010  RH  077%=      5-min Rain = 0
KHO1 092113Z 24001KT 05/01 A3035 RMK A01 T00470011  RH  078%=      5-min Rain = 0
KHO1 092114Z 23002KT 05/01 A3035 RMK A01 T00470011  RH  078%=      5-min Rain = 0
KHO1 092115Z 25001KT 05/01 A3035 RMK A01 T00470010  RH  077%=      5-min Rain = 0
KHO1 092116Z 28002KT 05/01 A3035 RMK A01 T00470010  RH  077%=      5-min Rain = 0
KHO1 092117Z 26002KT 05/01 A3035 RMK A01 T00480011  RH  077%=      5-min Rain = 0
KHO1 092118Z 24003KT 05/01 A3035 RMK A01 T00480012  RH  077%=      5-min Rain = 0
KHO1 092119Z 22003KT 05/01 A3035 RMK A01 T00480011  RH  077%=      5-min Rain = 0
KHO1 092120Z 23001KT 05/01 A3035 RMK A01 T00460008  RH  076%=      5-min Rain = 0
KHO1 092121Z 23000KT 05/01 A3035 RMK A01 T00470009  RH  076%=      5-min Rain = 0
KHO1 092122Z 22000KT 05/01 A3035 RMK A01 T00470010  RH  077%=      5-min Rain = 0
KHO1 092123Z 24001KT 05/01 A3035 RMK A01 T00480010  RH  076%=      5-min Rain = 0
KHO1 092124Z 25002KT 05/01 A3035 RMK A01 T00480010  RH  076%=      5-min Rain = 0
KHO1 092125Z 25002KT 05/01 A3035 RMK A01 T00480009  RH  076%=      5-min Rain = 0
KHO1 092126Z 29004KT 05/01 A3035 RMK A01 T00480011  RH  077%=      5-min Rain = 0
KHO1 092127Z 27003KT 05/01 A3035 RMK A01 T00480012  RH  077%=      5-min Rain = 0
KHO1 092128Z 25004KT 05/01 A3035 RMK A01 T00480011  RH  077%=      5-min Rain = 0
KHO1 092129Z 26003KT 05/01 A3035 RMK A01 T00470009  RH  076%=      5-min Rain = 0
KHO1 092130Z 28002KT 05/01 A3035 RMK A01 T00470009  RH  077%=      5-min Rain = 0
KHO1 092131Z 29003KT 05/01 A3035 RMK A01 T00470009  RH  076%=      5-min Rain = 0
KHO1 092132Z 28003KT 05/01 A3035 RMK A01 T00470009  RH  077%=      5-min Rain = 0
KHO1 092133Z 27003KT 05/01 A3035 RMK A01 T00470010  RH  077%=      5-min Rain = 0
KHO1 092134Z 27002KT 05/01 A3035 RMK A01 T00460009  RH  077%=      5-min Rain = 0
KHO1 092135Z 28003KT 05/01 A3035 RMK A01 T00460010  RH  077%=      5-min Rain = 0
KHO1 092136Z 29003KT 05/01 A3035 RMK A01 T00470011  RH  077%=      5-min Rain = 0
KHO1 092137Z 29003KT 05/01 A3035 RMK A01 T00470010  RH  077%=      5-min Rain = 0
KHO1 092138Z 28003KT 05/01 A3035 RMK A01 T00460009  RH  077%=      5-min Rain = 0
KHO1 092139Z 29002KT 05/01 A3034 RMK A01 T00460009  RH  077%=      5-min Rain = 0
KHO1 092140Z 27002KT 05/01 A3034 RMK A01 T00460009  RH  077%=      5-min Rain = 0
KHO1 092141Z 27002KT 05/01 A3034 RMK A01 T00460008  RH  076%=      5-min Rain = 0
KHO1 092142Z 28002KT 05/01 A3034 RMK A01 T00470009  RH  077%=      5-min Rain = 0
KHO1 092143Z 28002KT 05/01 A3034 RMK A01 T00490012  RH  077%=      5-min Rain = 0
KHO1 092144Z 26003KT 05/01 A3034 RMK A01 T00500011  RH  076%=      5-min Rain = 0
KHO1 092145Z 24004KT 05/01 A3034 RMK A01 T00500009  RH  075%=      5-min Rain = 0
KHO1 092146Z 25003KT 05/01 A3034 RMK A01 T00490009  RH  075%=      5-min Rain = 0
KHO1 092147Z 25002KT 05/01 A3034 RMK A01 T00500010  RH  076%=      5-min Rain = 0
KHO1 092148Z 26002KT 05/01 A3035 RMK A01 T00500009  RH  075%=      5-min Rain = 0
KHO1 092149Z 26002KT 05/01 A3035 RMK A01 T00510010  RH  075%=      5-min Rain = 0
KHO1 092150Z 25003KT 05/01 A3035 RMK A01 T00520010  RH  074%=      5-min Rain = 0
KHO1 092151Z 25003KT 05/01 A3035 RMK A01 T00530011  RH  074%=      5-min Rain = 0
KHO1 092152Z 27002KT 05/01 A3035 RMK A01 T00540010  RH  074%=      5-min Rain = 0
KHO1 092153Z 27002KT 06/01 A3035 RMK A01 T00550011  RH  073%=      5-min Rain = 0
KHO1 092154Z 28003KT 06/01 A3035 RMK A01 T00570012  RH  073%=      5-min Rain = 0
KHO1 092155Z 25002KT 06/01 A3035 RMK A01 T00570011  RH  072%=      5-min Rain = 0
KHO1 092156Z 25003KT 06/01 A3035 RMK A01 T00580014  RH  073%=      5-min Rain = 0
KHO1 092157Z 26002KT 06/01 A3035 RMK A01 T00590012  RH  072%=      5-min Rain = 0
KHO1 092158Z 26003KT 06/01 A3035 RMK A01 T00590012  RH  072%=      5-min Rain = 0
KHO1 092159Z 27002KT 06/01 A3035 RMK A01 T00580008  RH  070%=      5-min Rain = 0
KHO1 092200Z 29001KT 06/01 A3035 RMK A01 T00590009  RH  071%=      5-min Rain = 0
KHO1 092201Z 32001KT 06/01 A3035 RMK A01 T00600010  RH  070%=      5-min Rain = 0
KHO1 092202Z 30002KT 06/01 A3035 RMK A01 T00600010  RH  070%=      5-min Rain = 0
KHO1 092203Z 26002KT 06/01 A3035 RMK A01 T00590008  RH  070%=      5-min Rain = 0
KHO1 092204Z 23001KT 06/01 A3035 RMK A01 T00590009  RH  070%=      5-min Rain = 0
KHO1 092205Z 23002KT 06/01 A3035 RMK A01 T00610011  RH  071%=      5-min Rain = 0
KHO1 092206Z 25003KT 06/01 A3035 RMK A01 T00610009  RH  069%=      5-min Rain = 0
KHO1 092207Z 27003KT 06/01 A3035 RMK A01 T00590008  RH  069%=      5-min Rain = 0
KHO1 092208Z 25003KT 06/01 A3035 RMK A01 T00590010  RH  071%=      5-min Rain = 0
KHO1 092209Z 23001KT 06/01 A3035 RMK A01 T00590008  RH  070%=      5-min Rain = 0
KHO1 092210Z 23003KT 06/01 A3035 RMK A01 T00590008  RH  070%=      5-min Rain = 0
KHO1 092211Z 20003KT 06/01 A3035 RMK A01 T00590008  RH  070%=      5-min Rain = 0
KHO1 092212Z 22003KT 06/01 A3035 RMK A01 T00590009  RH  070%=      5-min Rain = 0
KHO1 092213Z 25003KT 06/01 A3035 RMK A01 T00580007  RH  070%=      5-min Rain = 0
KHO1 092214Z 25003KT 06/01 A3035 RMK A01 T00570005  RH  069%=      5-min Rain = 0
KHO1 092215Z 20001KT 06/01 A3035 RMK A01 T00570007  RH  070%=      5-min Rain = 0
KHO1 092216Z 20001KT 06/01 A3035 RMK A01 T00570005  RH  069%=      5-min Rain = 0
KHO1 092217Z 21001KT 06/01 A3035 RMK A01 T00580009  RH  070%=      5-min Rain = 0
KHO1 092218Z 21002KT 06/01 A3035 RMK A01 T00590007  RH  069%=      5-min Rain = 0
KHO1 092219Z 24002KT 06/00 A3035 RMK A01 T00580004  RH  068%=      5-min Rain = 0
KHO1 092220Z 23002KT 06/00 A3035 RMK A01 T00570004  RH  069%=      5-min Rain = 0
KHO1 092221Z 23003KT 06/01 A3035 RMK A01 T00580006  RH  069%=      5-min Rain = 0
KHO1 092222Z 24003KT 06/00 A3035 RMK A01 T00580004  RH  068%=      5-min Rain = 0
KHO1 092223Z 24003KT 06/00 A3035 RMK A01 T00570004  RH  069%=      5-min Rain = 0
KHO1 092224Z 24003KT 06/00 A3035 RMK A01 T00560003  RH  069%=      5-min Rain = 0
KHO1 092225Z 23003KT 06/01 A3035 RMK A01 T00560005  RH  070%=      5-min Rain = 0
KHO1 092226Z 23002KT 06/00 A3035 RMK A01 T00550003  RH  069%=      5-min Rain = 0
KHO1 092227Z 25001KT 06/01 A3035 RMK A01 T00560005  RH  070%=      5-min Rain = 0
KHO1 092228Z 24001KT 06/01 A3035 RMK A01 T00580007  RH  070%=      5-min Rain = 0
KHO1 092229Z 24001KT 06/01 A3035 RMK A01 T00590006  RH  069%=      5-min Rain = 0
KHO1 092230Z 23001KT 06/01 A3035 RMK A01 T00590006  RH  069%=      5-min Rain = 0
KHO1 092231Z 26001KT 06/01 A3035 RMK A01 T00600007  RH  068%=      5-min Rain = 0
KHO1 092232Z 27001KT 06/01 A3035 RMK A01 T00610006  RH  068%=      5-min Rain = 0
KHO1 092233Z 27000KT 06/01 A3035 RMK A01 T00620008  RH  068%=      5-min Rain = 0
KHO1 092234Z 28001KT 06/01 A3035 RMK A01 T00630008  RH  068%=      5-min Rain = 0
KHO1 092235Z 28000KT 06/01 A3035 RMK A01 T00640008  RH  067%=      5-min Rain = 0
KHO1 092236Z 00000KT 07/01 A3035 RMK A01 T00650008  RH  067%=      5-min Rain = 0
KHO1 092237Z 00000KT 07/01 A3035 RMK A01 T00650008  RH  067%=      5-min Rain = 0
KHO1 092238Z 00000KT 07/01 A3035 RMK A01 T00650009  RH  068%=      5-min Rain = 0
KHO1 092239Z 00000KT 07/01 A3035 RMK A01 T00650010  RH  068%=      5-min Rain = 0
KHO1 092240Z 19000KT 07/01 A3035 RMK A01 T00660011  RH  068%=      5-min Rain = 0
KHO1 092241Z 19002KT 06/01 A3035 RMK A01 T00640007  RH  067%=      5-min Rain = 0
KHO1 092242Z 19002KT 06/01 A3035 RMK A01 T00620005  RH  067%=      5-min Rain = 0
KHO1 092243Z 19002KT 06/00 A3035 RMK A01 T00610004  RH  067%=      5-min Rain = 0
KHO1 092244Z 19002KT 06/00 A3035 RMK A01 T00590003  RH  067%=      5-min Rain = 0
KHO1 092245Z 19001KT 06/00 A3035 RMK A01 T00590004  RH  068%=      5-min Rain = 0
KHO1 092246Z 23001KT 06/01 A3035 RMK A01 T00590005  RH  068%=      5-min Rain = 0
KHO1 092247Z 24002KT 06/01 A3035 RMK A01 T00590006  RH  069%=      5-min Rain = 0
KHO1 092248Z 23001KT 06/00 A3035 RMK A01 T00580004  RH  068%=      5-min Rain = 0
KHO1 092249Z 25001KT 06/01 A3035 RMK A01 T00580005  RH  068%=      5-min Rain = 0
KHO1 092250Z 28002KT 06/01 A3035 RMK A01 T00590006  RH  069%=      5-min Rain = 0
KHO1 092251Z 24002KT 06/01 A3035 RMK A01 T00590007  RH  069%=      5-min Rain = 0
KHO1 092252Z 23002KT 06/01 A3035 RMK A01 T00590006  RH  069%=      5-min Rain = 0
KHO1 092253Z 21003KT 06/00 A3035 RMK A01 T00570004  RH  069%=      5-min Rain = 0
KHO1 092254Z 20004KT 06/00 A3035 RMK A01 T00560004  RH  069%=      5-min Rain = 0
KHO1 092255Z 19004KT 05/01 A3035 RMK A01 T00540005  RH  071%=      5-min Rain = 0
KHO1 092256Z 21004KT 05/01 A3035 RMK A01 T00540006  RH  072%=      5-min Rain = 0
KHO1 092257Z 22003KT 05/01 A3035 RMK A01 T00530005  RH  071%=      5-min Rain = 0
KHO1 092258Z 22003KT 05/00 A3035 RMK A01 T00520004  RH  071%=      5-min Rain = 0
KHO1 092259Z 23002KT 05/01 A3035 RMK A01 T00530005  RH  071%=      5-min Rain = 0
KHO1 092300Z 25002KT 05/01 A3035 RMK A01 T00530006  RH  071%=      5-min Rain = 0
KHO1 092301Z 23003KT 05/01 A3035 RMK A01 T00540007  RH  072%=      5-min Rain = 0
KHO1 092302Z 23003KT 05/01 A3035 RMK A01 T00530007  RH  072%=      5-min Rain = 0
KHO1 092303Z 23004KT 05/01 A3035 RMK A01 T00530006  RH  072%=      5-min Rain = 0
KHO1 092304Z 23004KT 05/01 A3035 RMK A01 T00520005  RH  072%=      5-min Rain = 0
KHO1 092305Z 21003KT 05/01 A3035 RMK A01 T00510005  RH  072%=      5-min Rain = 0
KHO1 092306Z 21003KT 05/01 A3035 RMK A01 T00510005  RH  072%=      5-min Rain = 0
KHO1 092307Z 21003KT 05/01 A3035 RMK A01 T00510007  RH  073%=      5-min Rain = 0
KHO1 092308Z 22003KT 05/01 A3035 RMK A01 T00510007  RH  073%=      5-min Rain = 0
KHO1 092309Z 22003KT 05/01 A3035 RMK A01 T00510006  RH  073%=      5-min Rain = 0
KHO1 092310Z 24002KT 05/01 A3035 RMK A01 T00510006  RH  073%=      5-min Rain = 0
KHO1 092311Z 25002KT 05/01 A3035 RMK A01 T00510007  RH  073%=      5-min Rain = 0
KHO1 092312Z 25002KT 05/01 A3035 RMK A01 T00510006  RH  073%=      5-min Rain = 0
KHO1 092313Z 24002KT 05/01 A3035 RMK A01 T00510006  RH  072%=      5-min Rain = 0
KHO1 092314Z 25001KT 05/01 A3035 RMK A01 T00510006  RH  073%=      5-min Rain = 0
KHO1 092315Z 24001KT 05/01 A3035 RMK A01 T00520007  RH  073%=      5-min Rain = 0
KHO1 092316Z 24003KT 05/01 A3035 RMK A01 T00520006  RH  072%=      5-min Rain = 0
KHO1 092317Z 25002KT 05/00 A3035 RMK A01 T00510004  RH  072%=      5-min Rain = 0
KHO1 092318Z 26002KT 05/00 A3035 RMK A01 T00500004  RH  072%=      5-min Rain = 0
KHO1 092319Z 26003KT 05/01 A3035 RMK A01 T00500005  RH  073%=      5-min Rain = 0
KHO1 092320Z 24003KT 05/01 A3035 RMK A01 T00500005  RH  073%=      5-min Rain = 0
KHO1 092321Z 25003KT 05/01 A3035 RMK A01 T00490005  RH  073%=      5-min Rain = 0
KHO1 092322Z 25003KT 05/01 A3035 RMK A01 T00490006  RH  074%=      5-min Rain = 0
KHO1 092323Z 26003KT 05/01 A3035 RMK A01 T00480006  RH  074%=      5-min Rain = 0
KHO1 092324Z 26003KT 05/01 A3035 RMK A01 T00470005  RH  074%=      5-min Rain = 0
KHO1 092325Z 26003KT 05/01 A3035 RMK A01 T00470005  RH  074%=      5-min Rain = 0
KHO1 092326Z 26003KT 05/01 A3035 RMK A01 T00470006  RH  075%=      5-min Rain = 0
KHO1 092327Z 26003KT 05/01 A3035 RMK A01 T00460006  RH  075%=      5-min Rain = 0
KHO1 092328Z 27002KT 05/01 A3035 RMK A01 T00460006  RH  075%=      5-min Rain = 0
KHO1 092329Z 27002KT 05/01 A3035 RMK A01 T00460006  RH  075%=      5-min Rain = 0
KHO1 092330Z 27002KT 05/01 A3035 RMK A01 T00450005  RH  075%=      5-min Rain = 0
KHO1 092331Z 27002KT 05/01 A3035 RMK A01 T00450006  RH  076%=      5-min Rain = 0
KHO1 092332Z 27002KT 05/01 A3035 RMK A01 T00450006  RH  076%=      5-min Rain = 0
KHO1 092333Z 27002KT 04/01 A3035 RMK A01 T00440006  RH  076%=      5-min Rain = 0
KHO1 092334Z 25002KT 04/01 A3035 RMK A01 T00440006  RH  076%=      5-min Rain = 0
KHO1 092335Z 24003KT 04/01 A3035 RMK A01 T00440005  RH  076%=      5-min Rain = 0
KHO1 092336Z 23003KT 04/01 A3035 RMK A01 T00430005  RH  076%=      5-min Rain = 0
KHO1 092337Z 23003KT 04/01 A3035 RMK A01 T00420005  RH  077%=      5-min Rain = 0
KHO1 092338Z 23004KT 04/00 A3035 RMK A01 T00410004  RH  077%=      5-min Rain = 0
KHO1 092339Z 23004KT 04/00 A3035 RMK A01 T00400004  RH  078%=      5-min Rain = 0
KHO1 092340Z 23004KT 04/00 A3035 RMK A01 T00390004  RH  078%=      5-min Rain = 0
KHO1 092341Z 23004KT 04/00 A3035 RMK A01 T00380004  RH  079%=      5-min Rain = 0
KHO1 092342Z 23004KT 04/00 A3035 RMK A01 T00370004  RH  079%=      5-min Rain = 0
KHO1 092343Z 24004KT 04/00 A3035 RMK A01 T00360004  RH  080%=      5-min Rain = 0
KHO1 092344Z 24004KT 04/00 A3035 RMK A01 T00360004  RH  080%=      5-min Rain = 0
KHO1 092345Z 24004KT 04/01 A3035 RMK A01 T00350005  RH  080%=      5-min Rain = 0
KHO1 092346Z 25004KT 04/01 A3035 RMK A01 T00350005  RH  081%=      5-min Rain = 0
KHO1 092347Z 25003KT 03/01 A3035 RMK A01 T00340005  RH  081%=      5-min Rain = 0
KHO1 092348Z 25003KT 03/01 A3035 RMK A01 T00340005  RH  081%=      5-min Rain = 0
KHO1 092349Z 25003KT 03/01 A3035 RMK A01 T00340005  RH  081%=      5-min Rain = 0
KHO1 092350Z 25003KT 03/01 A3035 RMK A01 T00330005  RH  082%=      5-min Rain = 0
KHO1 092351Z 25004KT 03/01 A3035 RMK A01 T00330005  RH  082%=      5-min Rain = 0
KHO1 092352Z 25004KT 03/00 A3035 RMK A01 T00320004  RH  082%=      5-min Rain = 0
KHO1 092353Z 25004KT 03/00 A3035 RMK A01 T00310004  RH  082%=      5-min Rain = 0
KHO1 092354Z 25004KT 03/00 A3035 RMK A01 T00310004  RH  083%=      5-min Rain = 0
KHO1 092355Z 25004KT 03/00 A3035 RMK A01 T00310004  RH  083%=      5-min Rain = 0
KHO1 092356Z 24004KT 03/00 A3035 RMK A01 T00300004  RH  083%=      5-min Rain = 0
KHO1 092357Z 24004KT 03/00 A3035 RMK A01 T00300004  RH  083%=      5-min Rain = 0
KHO1 092358Z 24004KT 03/00 A3035 RMK A01 T00290004  RH  083%=      5-min Rain = 0
KHO1 092359Z 24004KT 03/00 A3035 RMK A01 T00290004  RH  084%=      5-min Rain = 0
KHO1 100000Z 24004KT 03/00 A3035 RMK A01 T00280003  RH  084%=      5-min Rain = 0
KHO1 100001Z 24004KT 03/00 A3035 RMK A01 T00280003  RH  084%=      5-min Rain = 0
KHO1 100002Z 24004KT 03/00 A3035 RMK A01 T00280003  RH  084%=      5-min Rain = 0
KHO1 100003Z 24004KT 03/00 A3035 RMK A01 T00270003  RH  084%=      5-min Rain = 0
KHO1 100004Z 24003KT 03/00 A3035 RMK A01 T00270003  RH  084%=      5-min Rain = 0
KHO1 100005Z 24003KT 03/00 A3035 RMK A01 T00260003  RH  084%=      5-min Rain = 0
KHO1 100006Z 24003KT 03/00 A3035 RMK A01 T00260003  RH  085%=      5-min Rain = 0
KHO1 100007Z 24003KT 03/00 A3035 RMK A01 T00260003  RH  085%=      5-min Rain = 0
KHO1 100008Z 23003KT 03/00 A3035 RMK A01 T00260003  RH  085%=      5-min Rain = 0
KHO1 100009Z 23003KT 03/00 A3035 RMK A01 T00250003  RH  085%=      5-min Rain = 0
KHO1 100010Z 23003KT 03/00 A3035 RMK A01 T00250003  RH  085%=      5-min Rain = 0
KHO1 100011Z 23003KT 03/00 A3035 RMK A01 T00250003  RH  085%=      5-min Rain = 0
KHO1 100012Z 24002KT 03/00 A3035 RMK A01 T00250003  RH  085%=      5-min Rain = 0
KHO1 100013Z 24002KT 03/00 A3035 RMK A01 T00250003  RH  086%=      5-min Rain = 0
KHO1 100014Z 24002KT 03/00 A3035 RMK A01 T00250003  RH  086%=      5-min Rain = 0
KHO1 100015Z 24002KT 02/00 A3035 RMK A01 T00240003  RH  086%=      5-min Rain = 0
KHO1 100016Z 24002KT 02/00 A3035 RMK A01 T00240003  RH  086%=      5-min Rain = 0
KHO1 100017Z 24002KT 02/00 A3036 RMK A01 T00240002  RH  086%=      5-min Rain = 0
KHO1 100018Z 24003KT 02/00 A3036 RMK A01 T00240003  RH  086%=      5-min Rain = 0
KHO1 100019Z 23003KT 02/00 A3036 RMK A01 T00240003  RH  086%=      5-min Rain = 0
KHO1 100020Z 22003KT 02/00 A3036 RMK A01 T00230003  RH  087%=      5-min Rain = 0
KHO1 100021Z 22003KT 02/00 A3036 RMK A01 T00230003  RH  087%=      5-min Rain = 0
KHO1 100022Z 22003KT 02/00 A3036 RMK A01 T00230004  RH  087%=      5-min Rain = 0
KHO1 100023Z 22003KT 02/00 A3036 RMK A01 T00230004  RH  087%=      5-min Rain = 0
KHO1 100024Z 22002KT 02/01 A3036 RMK A01 T00230005  RH  088%=      5-min Rain = 0
KHO1 100025Z 22002KT 02/01 A3036 RMK A01 T00230005  RH  088%=      5-min Rain = 0
KHO1 100026Z 22002KT 02/00 A3036 RMK A01 T00230004  RH  088%=      5-min Rain = 0
KHO1 100027Z 22002KT 02/00 A3036 RMK A01 T00230004  RH  088%=      5-min Rain = 0
KHO1 100028Z 22002KT 02/00 A3036 RMK A01 T00230004  RH  087%=      5-min Rain = 0
KHO1 100029Z 22002KT 02/00 A3036 RMK A01 T00220003  RH  087%=      5-min Rain = 0
KHO1 100030Z 22002KT 02/00 A3036 RMK A01 T00220003  RH  087%=      5-min Rain = 0
KHO1 100031Z 22002KT 02/00 A3036 RMK A01 T00210002  RH  087%=      5-min Rain = 0
KHO1 100032Z 21001KT 02/00 A3036 RMK A01 T00210002  RH  087%=      5-min Rain = 0
KHO1 100033Z 20001KT 02/00 A3036 RMK A01 T00210003  RH  088%=      5-min Rain = 0
KHO1 100034Z 20002KT 02/00 A3036 RMK A01 T00210004  RH  088%=      5-min Rain = 0
KHO1 100035Z 20002KT 02/00 A3036 RMK A01 T00210003  RH  088%=      5-min Rain = 0
KHO1 100036Z 20002KT 02/00 A3036 RMK A01 T00200003  RH  088%=      5-min Rain = 0
KHO1 100037Z 20002KT 02/00 A3036 RMK A01 T00200004  RH  089%=      5-min Rain = 0
KHO1 100038Z 20002KT 02/00 A3036 RMK A01 T00200004  RH  089%=      5-min Rain = 0
KHO1 100039Z 21002KT 02/01 A3036 RMK A01 T00200005  RH  090%=      5-min Rain = 0
KHO1 100040Z 22002KT 02/01 A3036 RMK A01 T00200006  RH  090%=      5-min Rain = 0
KHO1 100041Z 23002KT 02/01 A3036 RMK A01 T00200006  RH  090%=      5-min Rain = 0
KHO1 100042Z 23002KT 02/00 A3036 RMK A01 T00190004  RH  090%=      5-min Rain = 0
KHO1 100043Z 24002KT 02/01 A3036 RMK A01 T00190005  RH  091%=      5-min Rain = 0
KHO1 100044Z 24003KT 02/01 A3036 RMK A01 T00190008  RH  092%=      5-min Rain = 0
KHO1 100045Z 25003KT 02/01 A3036 RMK A01 T00190009  RH  093%=      5-min Rain = 0
KHO1 100046Z 25004KT 02/01 A3036 RMK A01 T00200010  RH  093%=      5-min Rain = 0
KHO1 100047Z 25004KT 02/01 A3036 RMK A01 T00190010  RH  093%=      5-min Rain = 0
KHO1 100048Z 25005KT 02/01 A3036 RMK A01 T00190009  RH  093%=      5-min Rain = 0
KHO1 100049Z 25005KT 02/01 A3037 RMK A01 T00180007  RH  092%=      5-min Rain = 0
KHO1 100050Z 25005KT 02/01 A3037 RMK A01 T00180007  RH  093%=      5-min Rain = 0
KHO1 100051Z 25005KT 02/01 A3037 RMK A01 T00170007  RH  093%=      5-min Rain = 0
KHO1 100052Z 25005KT 02/01 A3037 RMK A01 T00160007  RH  093%=      5-min Rain = 0
KHO1 100053Z 25005KT 02/01 A3037 RMK A01 T00160006  RH  093%=      5-min Rain = 0
KHO1 100054Z 24005KT 02/01 A3037 RMK A01 T00150005  RH  093%=      5-min Rain = 0
KHO1 100055Z 24005KT 01/01 A3037 RMK A01 T00140005  RH  094%=      5-min Rain = 0
KHO1 100056Z 24005KT 01/00 A3037 RMK A01 T00130004  RH  094%=      5-min Rain = 0
KHO1 100057Z 24005KT 01/00 A3037 RMK A01 T00120004  RH  094%=      5-min Rain = 0
KHO1 100058Z 24005KT 01/00 A3037 RMK A01 T00110003  RH  094%=      5-min Rain = 0
KHO1 100059Z 24005KT 01/00 A3037 RMK A01 T00110003  RH  094%=      5-min Rain = 0
KHO1 100100Z 24005KT 01/00 A3037 RMK A01 T00100002  RH  094%=      5-min Rain = 0
KHO1 100101Z 24005KT 01/00 A3037 RMK A01 T00090001  RH  094%=      5-min Rain = 0
KHO1 100102Z 24005KT 01/00 A3037 RMK A01 T00080000  RH  095%=      5-min Rain = 0
KHO1 100103Z 24005KT 01/M00 A3037 RMK A01 T00071001  RH  095%=      5-min Rain = 0
KHO1 100104Z 25006KT 01/M00 A3037 RMK A01 T00061001  RH  095%=      5-min Rain = 0
KHO1 100105Z 25005KT 01/M00 A3037 RMK A01 T00051002  RH  095%=      5-min Rain = 0
KHO1 100106Z 25005KT 00/M00 A3037 RMK A01 T00041002  RH  095%=      5-min Rain = 0
KHO1 100107Z 25005KT 00/M00 A3037 RMK A01 T00041002  RH  096%=      5-min Rain = 0
KHO1 100108Z 25005KT 00/M00 A3037 RMK A01 T00041002  RH  096%=      5-min Rain = 0
KHO1 100109Z 25005KT 00/M00 A3037 RMK A01 T00031002  RH  096%=      5-min Rain = 0
KHO1 100110Z 25006KT 00/M00 A3037 RMK A01 T00031002  RH  096%=      5-min Rain = 0
KHO1 100111Z 25006KT 00/M00 A3037 RMK A01 T00031002  RH  097%=      5-min Rain = 0
KHO1 100112Z 25006KT 00/M00 A3037 RMK A01 T00021002  RH  097%=      5-min Rain = 0
KHO1 100113Z 25005KT 00/M00 A3037 RMK A01 T00021002  RH  097%=      5-min Rain = 0
KHO1 100114Z 25005KT 00/M00 A3037 RMK A01 T00021002  RH  097%=      5-min Rain = 0
KHO1 100115Z 26005KT 00/M00 A3037 RMK A01 T00021002  RH  097%=      5-min Rain = 0
KHO1 100116Z 26005KT 00/M00 A3037 RMK A01 T00021002  RH  097%=      5-min Rain = 0
KHO1 100117Z 26004KT 00/M00 A3037 RMK A01 T00021001  RH  097%=      5-min Rain = 0
KHO1 100118Z 26005KT 00/M00 A3037 RMK A01 T00021001  RH  098%=      5-min Rain = 0
KHO1 100119Z 26005KT 00/M00 A3037 RMK A01 T00021001  RH  098%=      5-min Rain = 0
KHO1 100120Z 26004KT 00/M00 A3037 RMK A01 T00021001  RH  098%=      5-min Rain = 0
KHO1 100121Z 26004KT 00/M00 A3037 RMK A01 T00021001  RH  098%=      5-min Rain = 0
KHO1 100122Z 26004KT 00/M00 A3037 RMK A01 T00021001  RH  098%=      5-min Rain = 0
KHO1 100123Z 26004KT 00/M00 A3037 RMK A01 T00021002  RH  098%=      5-min Rain = 0
KHO1 100124Z 25004KT 00/M00 A3037 RMK A01 T00021002  RH  098%=      5-min Rain = 0
KHO1 100125Z 25004KT 00/M00 A3037 RMK A01 T00011002  RH  098%=      5-min Rain = 0
KHO1 100126Z 25004KT 00/M00 A3037 RMK A01 T00011003  RH  097%=      5-min Rain = 0
KHO1 100127Z 25004KT 00/M00 A3037 RMK A01 T00011003  RH  098%=      5-min Rain = 0
KHO1 100128Z 25004KT 00/M00 A3037 RMK A01 T00011003  RH  098%=      5-min Rain = 0
KHO1 100129Z 25004KT 00/00 A3037 RMK A01 T000000-3  RH  098%=      5-min Rain = 0
KHO1 100130Z 25004KT 00/00 A3037 RMK A01 T000000-3  RH  098%=      5-min Rain = 0
KHO1 100131Z 26005KT 00/00 A3038 RMK A01 T00-000-4  RH  097%=      5-min Rain = 0
KHO1 100132Z 26005KT 00/00 A3038 RMK A01 T00-000-4  RH  097%=      5-min Rain = 0
KHO1 100133Z 27004KT M00/M00 A3038 RMK A01 T10011004  RH  097%=      5-min Rain = 0
KHO1 100134Z 27003KT M00/M01 A3038 RMK A01 T10011005  RH  097%=      5-min Rain = 0
KHO1 100135Z 27003KT M00/M01 A3038 RMK A01 T10021005  RH  097%=      5-min Rain = 0
KHO1 100136Z 27004KT M00/M01 A3038 RMK A01 T10021005  RH  098%=      5-min Rain = 0
KHO1 100137Z 27004KT M00/M00 A3038 RMK A01 T10011004  RH  098%=      5-min Rain = 0
KHO1 100138Z 27004KT 00/00 A3038 RMK A01 T00-000-3  RH  098%=      5-min Rain = 0
KHO1 100139Z 27004KT 00/M00 A3038 RMK A01 T00011002  RH  098%=      5-min Rain = 0
KHO1 100140Z 28004KT 00/M00 A3038 RMK A01 T00011001  RH  099%=      5-min Rain = 0
KHO1 100141Z 28004KT 00/00 A3038 RMK A01 T000200-0  RH  098%=      5-min Rain = 0
KHO1 100142Z 29003KT 00/M00 A3038 RMK A01 T00021001  RH  098%=      5-min Rain = 0
KHO1 100143Z 30003KT 00/M00 A3038 RMK A01 T00021001  RH  098%=      5-min Rain = 0
KHO1 100144Z 30003KT 00/M00 A3038 RMK A01 T00011002  RH  098%=      5-min Rain = 0
KHO1 100145Z 30003KT 00/M00 A3038 RMK A01 T00011002  RH  098%=      5-min Rain = 0
KHO1 100146Z 30003KT 00/M00 A3038 RMK A01 T00011002  RH  098%=      5-min Rain = 0
KHO1 100147Z 30002KT 00/M00 A3038 RMK A01 T00011002  RH  098%=      5-min Rain = 0
KHO1 100148Z 29002KT 00/M00 A3038 RMK A01 T00011002  RH  098%=      5-min Rain = 0
KHO1 100149Z 29002KT 00/M00 A3038 RMK A01 T00011002  RH  098%=      5-min Rain = 0
KHO1 100150Z 29002KT 00/M00 A3038 RMK A01 T00011002  RH  098%=      5-min Rain = 0
KHO1 100151Z 29002KT 00/M00 A3038 RMK A01 T00011002  RH  098%=      5-min Rain = 0
KHO1 100152Z 30002KT 00/M00 A3038 RMK A01 T00011003  RH  098%=      5-min Rain = 0
KHO1 100153Z 31002KT 00/00 A3038 RMK A01 T000000-3  RH  098%=      5-min Rain = 0
KHO1 100154Z 31002KT 00/00 A3038 RMK A01 T000000-3  RH  098%=      5-min Rain = 0
KHO1 100155Z 31002KT 00/00 A3038 RMK A01 T000000-3  RH  098%=      5-min Rain = 0
KHO1 100156Z 31003KT 00/00 A3038 RMK A01 T000000-3  RH  098%=      5-min Rain = 0
KHO1 100157Z 31003KT 00/00 A3038 RMK A01 T00-000-3  RH  098%=      5-min Rain = 0
KHO1 100158Z 31002KT 00/00 A3038 RMK A01 T000000-3  RH  098%=      5-min Rain = 0
KHO1 100159Z 32002KT 00/00 A3038 RMK A01 T000000-3  RH  098%=      5-min Rain = 0
KHO1 100200Z 32002KT 00/00 A3038 RMK A01 T000000-3  RH  098%=      5-min Rain = 0
KHO1 100201Z 32002KT 00/M00 A3038 RMK A01 T00011002  RH  098%=      5-min Rain = 0
KHO1 100202Z 32002KT 00/M00 A3038 RMK A01 T00011001  RH  098%=      5-min Rain = 0
KHO1 100203Z 32002KT 00/M00 A3038 RMK A01 T00021001  RH  098%=      5-min Rain = 0
KHO1 100204Z 32002KT 00/00 A3038 RMK A01 T000200-0  RH  099%=      5-min Rain = 0
KHO1 100205Z 32002KT 00/00 A3038 RMK A01 T00030001  RH  099%=      5-min Rain = 0
KHO1 100206Z 32001KT 00/00 A3038 RMK A01 T00030001  RH  099%=      5-min Rain = 0
KHO1 100207Z 32001KT 00/00 A3038 RMK A01 T00030001  RH  098%=      5-min Rain = 0
KHO1 100208Z 33001KT 00/00 A3038 RMK A01 T00040001  RH  098%=      5-min Rain = 0
KHO1 100209Z 33001KT 00/00 A3038 RMK A01 T00040001  RH  098%=      5-min Rain = 0
KHO1 100210Z 33001KT 00/00 A3038 RMK A01 T00040001  RH  098%=      5-min Rain = 0
KHO1 100211Z 34001KT 00/00 A3039 RMK A01 T00030000  RH  098%=      5-min Rain = 0
KHO1 100212Z 35002KT 00/00 A3039 RMK A01 T00030000  RH  098%=      5-min Rain = 0
KHO1 100213Z 00002KT 00/00 A3039 RMK A01 T00040001  RH  098%=      5-min Rain = 0
KHO1 100214Z 01002KT 01/00 A3039 RMK A01 T00050002  RH  098%=      5-min Rain = 0
KHO1 100215Z 01002KT 01/00 A3039 RMK A01 T00050003  RH  098%=      5-min Rain = 0
KHO1 100216Z 01002KT 01/00 A3039 RMK A01 T00050002  RH  098%=      5-min Rain = 0
KHO1 100217Z 36002KT 00/00 A3039 RMK A01 T00040001  RH  098%=      5-min Rain = 0
KHO1 100218Z 35002KT 00/00 A3039 RMK A01 T00040000  RH  098%=      5-min Rain = 0
KHO1 100219Z 34002KT 00/00 A3039 RMK A01 T000300-0  RH  098%=      5-min Rain = 0
KHO1 100220Z 34002KT 00/00 A3039 RMK A01 T00030001  RH  098%=      5-min Rain = 0
KHO1 100221Z 34002KT 00/00 A3039 RMK A01 T00030000  RH  098%=      5-min Rain = 0
KHO1 100222Z 34002KT 00/00 A3039 RMK A01 T00030000  RH  098%=      5-min Rain = 0
KHO1 100223Z 33003KT 00/00 A3039 RMK A01 T00030001  RH  098%=      5-min Rain = 0
KHO1 100224Z 33003KT 00/00 A3039 RMK A01 T00030001  RH  098%=      5-min Rain = 0
KHO1 100225Z 32003KT 00/00 A3039 RMK A01 T00040001  RH  098%=      5-min Rain = 0
KHO1 100226Z 32003KT 00/00 A3039 RMK A01 T00030001  RH  098%=      5-min Rain = 0
KHO1 100227Z 31003KT 00/00 A3039 RMK A01 T000300-0  RH  098%=      5-min Rain = 0
KHO1 100228Z 31004KT 00/M00 A3039 RMK A01 T00021001  RH  098%=      5-min Rain = 0
KHO1 100229Z 31004KT 00/M00 A3039 RMK A01 T00011003  RH  097%=      5-min Rain = 0
KHO1 100230Z 30004KT 00/00 A3039 RMK A01 T00-000-4  RH  097%=      5-min Rain = 0
KHO1 100231Z 30004KT M00/M01 A3039 RMK A01 T10021007  RH  097%=      5-min Rain = 0
KHO1 100232Z 30004KT M00/M01 A3039 RMK A01 T10031008  RH  097%=      5-min Rain = 0
KHO1 100233Z 31004KT M00/M01 A3039 RMK A01 T10041008  RH  097%=      5-min Rain = 0
KHO1 100234Z 32004KT M00/M01 A3039 RMK A01 T10041007  RH  098%=      5-min Rain = 0
KHO1 100235Z 32004KT M00/M01 A3039 RMK A01 T10041007  RH  098%=      5-min Rain = 0
KHO1 100236Z 32004KT M00/M01 A3039 RMK A01 T10041006  RH  098%=      5-min Rain = 0
KHO1 100237Z 32004KT M00/M01 A3039 RMK A01 T10041006  RH  098%=      5-min Rain = 0
KHO1 100238Z 32004KT M00/M01 A3039 RMK A01 T10041006  RH  099%=      5-min Rain = 0
KHO1 100239Z 32004KT M00/M01 A3039 RMK A01 T10041006  RH  099%=      5-min Rain = 0
KHO1 100240Z 32005KT M00/M01 A3039 RMK A01 T10031005  RH  099%=      5-min Rain = 0
KHO1 100241Z 32005KT M00/M01 A3039 RMK A01 T10031005  RH  099%=      5-min Rain = 0
KHO1 100242Z 31004KT M00/M01 A3039 RMK A01 T10031005  RH  099%=      5-min Rain = 0
KHO1 100243Z 31004KT M00/M01 A3039 RMK A01 T10041006  RH  099%=      5-min Rain = 0
KHO1 100244Z 31004KT M00/M01 A3039 RMK A01 T10041006  RH  099%=      5-min Rain = 0
KHO1 100245Z 30004KT M00/M01 A3039 RMK A01 T10041006  RH  099%=      5-min Rain = 0
KHO1 100246Z 29005KT M00/M01 A3039 RMK A01 T10041006  RH  099%=      5-min Rain = 0
KHO1 100247Z 29005KT M00/M01 A3038 RMK A01 T10041006  RH  099%=      5-min Rain = 0
KHO1 100248Z 28005KT M00/M01 A3038 RMK A01 T10041006  RH  099%=      5-min Rain = 0
KHO1 100249Z 28005KT M01/M01 A3038 RMK A01 T10051006  RH  099%=      5-min Rain = 0
KHO1 100250Z 29005KT M01/M01 A3038 RMK A01 T10051006  RH  099%=      5-min Rain = 0
KHO1 100251Z 29005KT M01/M01 A3038 RMK A01 T10051006  RH  099%=      5-min Rain = 0
KHO1 100252Z 29004KT M00/M01 A3038 RMK A01 T10041005  RH  099%=      5-min Rain = 0
KHO1 100253Z 30004KT M00/M01 A3038 RMK A01 T10041006  RH  099%=      5-min Rain = 0
KHO1 100254Z 31004KT M01/M01 A3038 RMK A01 T10051006  RH  099%=      5-min Rain = 0
KHO1 100255Z 31004KT M01/M01 A3039 RMK A01 T10051007  RH  099%=      5-min Rain = 0
KHO1 100256Z 30005KT M01/M01 A3039 RMK A01 T10051007  RH  099%=      5-min Rain = 0
KHO1 100257Z 29005KT M01/M01 A3039 RMK A01 T10061008  RH  099%=      5-min Rain = 0
KHO1 100258Z 29005KT M01/M01 A3039 RMK A01 T10061008  RH  099%=      5-min Rain = 0
KHO1 100259Z 28004KT M01/M01 A3039 RMK A01 T10061008  RH  099%=      5-min Rain = 0
KHO1 100300Z 28004KT M01/M01 A3039 RMK A01 T10071009  RH  098%=      5-min Rain = 0
KHO1 100301Z 28004KT M01/M01 A3039 RMK A01 T10081010  RH  098%=      5-min Rain = 0
KHO1 100302Z 29003KT M01/M01 A3039 RMK A01 T10081011  RH  098%=      5-min Rain = 0
KHO1 100303Z 29003KT M01/M01 A3039 RMK A01 T10091012  RH  098%=      5-min Rain = 0
KHO1 100304Z 29003KT M01/M01 A3039 RMK A01 T10101013  RH  098%=      5-min Rain = 0
KHO1 100305Z 30003KT M01/M01 A3039 RMK A01 T10111014  RH  098%=      5-min Rain = 0
KHO1 100306Z 30003KT M01/M01 A3039 RMK A01 T10111014  RH  098%=      5-min Rain = 0
KHO1 100307Z 31003KT M01/M01 A3039 RMK A01 T10121014  RH  098%=      5-min Rain = 0
KHO1 100308Z 31004KT M01/M01 A3039 RMK A01 T10111014  RH  098%=      5-min Rain = 0
KHO1 100309Z 30005KT M01/M01 A3039 RMK A01 T10121014  RH  099%=      5-min Rain = 0
KHO1 100310Z 30006KT M01/M01 A3039 RMK A01 T10121014  RH  099%=      5-min Rain = 0
KHO1 100311Z 30006KT M01/M01 A3039 RMK A01 T10111013  RH  099%=      5-min Rain = 0
KHO1 100312Z 30006KT M01/M01 A3039 RMK A01 T10101012  RH  099%=      5-min Rain = 0
KHO1 100313Z 30006KT M01/M01 A3039 RMK A01 T10101011  RH  099%=      5-min Rain = 0
KHO1 100314Z 29006KT M01/M01 A3039 RMK A01 T10091010  RH  099%=      5-min Rain = 0
KHO1 100315Z 30006KT M01/M01 A3039 RMK A01 T10091010  RH  099%=      5-min Rain = 0
KHO1 100316Z 30006KT M01/M01 A3039 RMK A01 T10091010  RH  099%=      5-min Rain = 0
KHO1 100317Z 30005KT M01/M01 A3039 RMK A01 T10091010  RH  099%=      5-min Rain = 0
KHO1 100318Z 30005KT M01/M01 A3039 RMK A01 T10091011  RH  099%=      5-min Rain = 0
KHO1 100319Z 30005KT M01/M01 A3039 RMK A01 T10091011  RH  099%=      5-min Rain = 0
KHO1 100320Z 29005KT M01/M01 A3039 RMK A01 T10091011  RH  099%=      5-min Rain = 0
KHO1 100321Z 29005KT M01/M01 A3039 RMK A01 T10091010  RH  099%=      5-min Rain = 0
KHO1 100322Z 29005KT M01/M01 A3039 RMK A01 T10091010  RH  099%=      5-min Rain = 0
KHO1 100323Z 30005KT M01/M01 A3039 RMK A01 T10091010  RH  099%=      5-min Rain = 0
KHO1 100324Z 31005KT M01/M01 A3039 RMK A01 T10081010  RH  099%=      5-min Rain = 0
KHO1 100325Z 31005KT M01/M01 A3039 RMK A01 T10091010  RH  099%=      5-min Rain = 0
KHO1 100326Z 31005KT M01/M01 A3039 RMK A01 T10091011  RH  099%=      5-min Rain = 0
KHO1 100327Z 31004KT M01/M01 A3039 RMK A01 T10091011  RH  099%=      5-min Rain = 0
KHO1 100328Z 31005KT M01/M01 A3039 RMK A01 T10101011  RH  099%=      5-min Rain = 0
KHO1 100329Z 31005KT M01/M01 A3039 RMK A01 T10101011  RH  099%=      5-min Rain = 0
KHO1 100330Z 31004KT M01/M01 A3039 RMK A01 T10101012  RH  099%=      5-min Rain = 0
KHO1 100331Z 30004KT M01/M01 A3039 RMK A01 T10101012  RH  099%=      5-min Rain = 0
KHO1 100332Z 30004KT M01/M01 A3039 RMK A01 T10101012  RH  099%=      5-min Rain = 0
KHO1 100333Z 30004KT M01/M01 A3039 RMK A01 T10101012  RH  099%=      5-min Rain = 0
KHO1 100334Z 31004KT M01/M01 A3039 RMK A01 T10101011  RH  099%=      5-min Rain = 0
KHO1 100335Z 31004KT M01/M01 A3039 RMK A01 T10101011  RH  099%=      5-min Rain = 0
KHO1 100336Z 31004KT M01/M01 A3039 RMK A01 T10101011  RH  099%=      5-min Rain = 0
KHO1 100337Z 30004KT M01/M01 A3039 RMK A01 T10101011  RH  099%=      5-min Rain = 0
KHO1 100338Z 30004KT M01/M01 A3039 RMK A01 T10101011  RH  099%=      5-min Rain = 0
KHO1 100339Z 31004KT M01/M01 A3039 RMK A01 T10101011  RH  099%=      5-min Rain = 0
KHO1 100340Z 31004KT M01/M01 A3039 RMK A01 T10101011  RH  099%=      5-min Rain = 0
KHO1 100341Z 32005KT M01/M01 A304 RMK A01 T10111012  RH  099%=      5-min Rain = 0
KHO1 100342Z 32004KT M01/M01 A304 RMK A01 T10111012  RH  099%=      5-min Rain = 0
KHO1 100343Z 32005KT M01/M01 A304 RMK A01 T10101011  RH  099%=      5-min Rain = 0
KHO1 100344Z 32004KT M01/M01 A304 RMK A01 T10091010  RH  100%=      5-min Rain = 0
KHO1 100345Z 32004KT M01/M01 A304 RMK A01 T10081009  RH  100%=      5-min Rain = 0
KHO1 100346Z 32004KT M01/M01 A304 RMK A01 T10081008  RH  100%=      5-min Rain = 0
KHO1 100347Z 33004KT M01/M01 A304 RMK A01 T10071008  RH  100%=      5-min Rain = 0
KHO1 100348Z 34004KT M01/M01 A304 RMK A01 T10081008  RH  100%=      5-min Rain = 0
KHO1 100349Z 34005KT M01/M01 A304 RMK A01 T10081009  RH  100%=      5-min Rain = 0
KHO1 100350Z 34005KT M01/M01 A304 RMK A01 T10081009  RH  099%=      5-min Rain = 0
KHO1 100351Z 34005KT M01/M01 A304 RMK A01 T10081009  RH  099%=      5-min Rain = 0
KHO1 100352Z 34005KT M01/M01 A304 RMK A01 T10081009  RH  100%=      5-min Rain = 0
KHO1 100353Z 34005KT M01/M01 A304 RMK A01 T10081008  RH  100%=      5-min Rain = 0
KHO1 100354Z 34005KT M01/M01 A304 RMK A01 T10081008  RH  100%=      5-min Rain = 0
KHO1 100355Z 33005KT M01/M01 A304 RMK A01 T10081008  RH  100%=      5-min Rain = 0
KHO1 100356Z 34004KT M01/M01 A3041 RMK A01 T10081008  RH  100%=      5-min Rain = 0
KHO1 100357Z 33003KT M01/M01 A304 RMK A01 T10081009  RH  099%=      5-min Rain = 0
KHO1 100358Z 33004KT M01/M01 A304 RMK A01 T10081010  RH  099%=      5-min Rain = 0
KHO1 100359Z 32004KT M01/M01 A304 RMK A01 T10091010  RH  099%=      5-min Rain = 0
KHO1 100400Z 32004KT M01/M01 A304 RMK A01 T10091010  RH  099%=      5-min Rain = 0
KHO1 100401Z 31004KT M01/M01 A304 RMK A01 T10091010  RH  099%=      5-min Rain = 0
KHO1 100402Z 30004KT M01/M01 A304 RMK A01 T10091011  RH  099%=      5-min Rain = 0
KHO1 100403Z 30004KT M01/M01 A304 RMK A01 T10101012  RH  099%=      5-min Rain = 0
KHO1 100404Z 31004KT M01/M01 A304 RMK A01 T10101012  RH  099%=      5-min Rain = 0
KHO1 100405Z 30004KT M01/M01 A304 RMK A01 T10111013  RH  099%=      5-min Rain = 0
KHO1 100406Z 30003KT M01/M01 A304 RMK A01 T10121013  RH  099%=      5-min Rain = 0
KHO1 100407Z 29003KT M01/M01 A304 RMK A01 T10121013  RH  099%=      5-min Rain = 0
KHO1 100408Z 28003KT M01/M01 A304 RMK A01 T10121013  RH  099%=      5-min Rain = 0
KHO1 100409Z 29003KT M01/M01 A304 RMK A01 T10121013  RH  099%=      5-min Rain = 0
KHO1 100410Z 29003KT M01/M01 A304 RMK A01 T10121014  RH  099%=      5-min Rain = 0
KHO1 100411Z 30002KT M01/M01 A304 RMK A01 T10121014  RH  099%=      5-min Rain = 0
KHO1 100412Z 31002KT M01/M01 A304 RMK A01 T10131014  RH  099%=      5-min Rain = 0
KHO1 100413Z 32002KT M01/M02 A304 RMK A01 T10131015  RH  099%=      5-min Rain = 0
KHO1 100414Z 33002KT M01/M02 A304 RMK A01 T10131015  RH  099%=      5-min Rain = 0
KHO1 100415Z 34002KT M01/M02 A304 RMK A01 T10141016  RH  099%=      5-min Rain = 0
KHO1 100416Z 34002KT M01/M02 A304 RMK A01 T10141016  RH  099%=      5-min Rain = 0
KHO1 100417Z 34003KT M01/M02 A304 RMK A01 T10141016  RH  099%=      5-min Rain = 0
KHO1 100418Z 35003KT M01/M02 A304 RMK A01 T10141015  RH  099%=      5-min Rain = 0
KHO1 100419Z 35004KT M01/M02 A304 RMK A01 T10141015  RH  099%=      5-min Rain = 0
KHO1 100420Z 00004KT M01/M01 A304 RMK A01 T10131014  RH  100%=      5-min Rain = 0
KHO1 100421Z 02005KT M01/M01 A304 RMK A01 T10131014  RH  100%=      5-min Rain = 0
KHO1 100422Z 01005KT M01/M01 A304 RMK A01 T10131014  RH  099%=      5-min Rain = 0
KHO1 100423Z 01005KT M01/M02 A3041 RMK A01 T10141015  RH  099%=      5-min Rain = 0
KHO1 100424Z 01005KT M01/M02 A3041 RMK A01 T10141015  RH  099%=      5-min Rain = 0
KHO1 100425Z 01006KT M01/M01 A3041 RMK A01 T10141014  RH  099%=      5-min Rain = 0
KHO1 100426Z 01005KT M01/M01 A3041 RMK A01 T10131014  RH  099%=      5-min Rain = 0
KHO1 100427Z 01005KT M01/M01 A3041 RMK A01 T10131014  RH  099%=      5-min Rain = 0
KHO1 100428Z 01005KT M01/M01 A3041 RMK A01 T10141014  RH  099%=      5-min Rain = 0
KHO1 100429Z 00006KT M01/M01 A3041 RMK A01 T10141014  RH  099%=      5-min Rain = 0
KHO1 100430Z 00006KT M01/M01 A3041 RMK A01 T10141014  RH  099%=      5-min Rain = 0
KHO1 100431Z 35005KT M01/M01 A3041 RMK A01 T10131014  RH  099%=      5-min Rain = 0
KHO1 100432Z 35005KT M01/M01 A3041 RMK A01 T10131014  RH  099%=      5-min Rain = 0
KHO1 100433Z 35005KT M01/M01 A3041 RMK A01 T10131014  RH  099%=      5-min Rain = 0
KHO1 100434Z 35005KT M01/M01 A3041 RMK A01 T10131014  RH  099%=      5-min Rain = 0
KHO1 100435Z 35005KT M01/M02 A3041 RMK A01 T10131015  RH  099%=      5-min Rain = 0
KHO1 100436Z 35005KT M01/M01 A3041 RMK A01 T10131014  RH  099%=      5-min Rain = 0
KHO1 100437Z 35005KT M01/M01 A3041 RMK A01 T10131014  RH  099%=      5-min Rain = 0
KHO1 100438Z 36005KT M01/M01 A3041 RMK A01 T10131014  RH  099%=      5-min Rain = 0
KHO1 100439Z 00005KT M01/M01 A3041 RMK A01 T10131014  RH  099%=      5-min Rain = 0
KHO1 100440Z 01005KT M01/M02 A3041 RMK A01 T10131015  RH  099%=      5-min Rain = 0
KHO1 100441Z 01006KT M01/M02 A3041 RMK A01 T10141016  RH  099%=      5-min Rain = 0
KHO1 100442Z 02006KT M02/M02 A3041 RMK A01 T10151018  RH  099%=      5-min Rain = 0
KHO1 100443Z 02006KT M02/M02 A3042 RMK A01 T10161018  RH  099%=      5-min Rain = 0
KHO1 100444Z 02006KT M02/M02 A3042 RMK A01 T10161018  RH  099%=      5-min Rain = 0
KHO1 100445Z 01007KT M02/M02 A3042 RMK A01 T10151016  RH  099%=      5-min Rain = 0
KHO1 100446Z 01007KT M01/M02 A3042 RMK A01 T10141015  RH  100%=      5-min Rain = 0
KHO1 100447Z 00006KT M01/M01 A3042 RMK A01 T10131013  RH  100%=      5-min Rain = 0
KHO1 100448Z 01006KT M01/M01 A3042 RMK A01 T10121012  RH  100%=      5-min Rain = 0
KHO1 100449Z 00006KT M01/M01 A3042 RMK A01 T10111011  RH  100%=      5-min Rain = 0
KHO1 100450Z 01006KT M01/M01 A3042 RMK A01 T10111011  RH  100%=      5-min Rain = 0
KHO1 100451Z 01006KT M01/M01 A3042 RMK A01 T10111012  RH  100%=      5-min Rain = 0
KHO1 100452Z 02007KT M01/M01 A3042 RMK A01 T10121013  RH  099%=      5-min Rain = 0
KHO1 100453Z 01007KT M01/M01 A3042 RMK A01 T10121013  RH  099%=      5-min Rain = 0
KHO1 100454Z 01007KT M01/M01 A3042 RMK A01 T10121013  RH  100%=      5-min Rain = 0
KHO1 100455Z 01006KT M01/M01 A3042 RMK A01 T10121012  RH  100%=      5-min Rain = 0
KHO1 100456Z 01006KT M01/M01 A3042 RMK A01 T10111012  RH  100%=      5-min Rain = 0
KHO1 100457Z 01005KT M01/M01 A3042 RMK A01 T10121012  RH  100%=      5-min Rain = 0
KHO1 100458Z 00004KT M01/M01 A3042 RMK A01 T10121012  RH  100%=      5-min Rain = 0
KHO1 100459Z 36003KT M01/M01 A3042 RMK A01 T10121012  RH  100%=      5-min Rain = 0
KHO1 100500Z 36004KT M01/M01 A3042 RMK A01 T10121013  RH  099%=      5-min Rain = 0
KHO1 100501Z 00004KT M01/M01 A3042 RMK A01 T10121013  RH  099%=      5-min Rain = 0
KHO1 100502Z 00005KT M01/M01 A3042 RMK A01 T10121013  RH  099%=      5-min Rain = 0
KHO1 100503Z 00005KT M01/M01 A3042 RMK A01 T10121013  RH  099%=      5-min Rain = 0
KHO1 100504Z 00005KT M01/M01 A3042 RMK A01 T10121012  RH  099%=      5-min Rain = 0
KHO1 100505Z 35003KT M01/M01 A3042 RMK A01 T10121013  RH  099%=      5-min Rain = 0
KHO1 100506Z 36003KT M01/M01 A3042 RMK A01 T10121014  RH  099%=      5-min Rain = 0
KHO1 100507Z 35003KT M01/M02 A3042 RMK A01 T10131015  RH  099%=      5-min Rain = 0
KHO1 100508Z 36003KT M01/M02 A3042 RMK A01 T10141015  RH  099%=      5-min Rain = 0
KHO1 100509Z 00003KT M01/M02 A3042 RMK A01 T10141016  RH  099%=      5-min Rain = 0
KHO1 100510Z 36003KT M01/M02 A3042 RMK A01 T10141015  RH  099%=      5-min Rain = 0
KHO1 100511Z 35003KT M01/M02 A3042 RMK A01 T10141015  RH  099%=      5-min Rain = 0
KHO1 100512Z 35003KT M01/M02 A3042 RMK A01 T10141015  RH  099%=      5-min Rain = 0
KHO1 100513Z 00004KT M01/M01 A3042 RMK A01 T10131014  RH  099%=      5-min Rain = 0
KHO1 100514Z 01004KT M01/M01 A3042 RMK A01 T10131014  RH  099%=      5-min Rain = 0
KHO1 100515Z 01004KT M01/M02 A3042 RMK A01 T10141015  RH  099%=      5-min Rain = 0
KHO1 100516Z 02005KT M01/M02 A3042 RMK A01 T10141015  RH  099%=      5-min Rain = 0
KHO1 100517Z 02005KT M02/M02 A3042 RMK A01 T10151016  RH  099%=      5-min Rain = 0
KHO1 100518Z 02004KT M02/M02 A3042 RMK A01 T10151016  RH  099%=      5-min Rain = 0
KHO1 100519Z 01004KT M02/M02 A3042 RMK A01 T10151017  RH  099%=      5-min Rain = 0
KHO1 100520Z 01003KT M02/M02 A3042 RMK A01 T10151017  RH  099%=      5-min Rain = 0
KHO1 100521Z 01004KT M02/M02 A3042 RMK A01 T10151017  RH  099%=      5-min Rain = 0
KHO1 100522Z 02003KT M02/M02 A3042 RMK A01 T10151016  RH  099%=      5-min Rain = 0
KHO1 100523Z 01003KT M02/M02 A3042 RMK A01 T10151016  RH  099%=      5-min Rain = 0
KHO1 100524Z 01003KT M02/M02 A3041 RMK A01 T10151016  RH  099%=      5-min Rain = 0
KHO1 100525Z 00003KT M02/M02 A3041 RMK A01 T10151015  RH  100%=      5-min Rain = 0
KHO1 100526Z 00002KT M01/M02 A3041 RMK A01 T10141015  RH  100%=      5-min Rain = 0
KHO1 100527Z 01003KT M01/M02 A3042 RMK A01 T10141015  RH  100%=      5-min Rain = 0
KHO1 100528Z 01003KT M02/M02 A3042 RMK A01 T10151015  RH  100%=      5-min Rain = 0
KHO1 100529Z 01004KT M02/M02 A3042 RMK A01 T10151016  RH  099%=      5-min Rain = 0
KHO1 100530Z 01004KT M02/M02 A3042 RMK A01 T10151016  RH  099%=      5-min Rain = 0
KHO1 100531Z 01004KT M02/M02 A3042 RMK A01 T10161017  RH  099%=      5-min Rain = 0
KHO1 100532Z 01004KT M02/M02 A3042 RMK A01 T10161017  RH  099%=      5-min Rain = 0
KHO1 100533Z 01004KT M02/M02 A3042 RMK A01 T10161018  RH  099%=      5-min Rain = 0
KHO1 100534Z 01004KT M02/M02 A3042 RMK A01 T10161018  RH  099%=      5-min Rain = 0
KHO1 100535Z 00004KT M02/M02 A3042 RMK A01 T10161017  RH  099%=      5-min Rain = 0
KHO1 100536Z 36002KT M02/M02 A3042 RMK A01 T10161017  RH  100%=      5-min Rain = 0
KHO1 100537Z 35002KT M02/M02 A3042 RMK A01 T10161017  RH  099%=      5-min Rain = 0
KHO1 100538Z 35002KT M02/M02 A3042 RMK A01 T10161017  RH  099%=      5-min Rain = 0
KHO1 100539Z 36003KT M02/M02 A3042 RMK A01 T10161017  RH  099%=      5-min Rain = 0
KHO1 100540Z 36003KT M02/M02 A3042 RMK A01 T10161017  RH  100%=      5-min Rain = 0
KHO1 100541Z 00003KT M02/M02 A3042 RMK A01 T10161017  RH  100%=      5-min Rain = 0
KHO1 100542Z 00003KT M02/M02 A3042 RMK A01 T10161016  RH  100%=      5-min Rain = 0
KHO1 100543Z 36003KT M02/M02 A3042 RMK A01 T10161016  RH  100%=      5-min Rain = 0
KHO1 100544Z 00004KT M02/M02 A3042 RMK A01 T10161016  RH  100%=      5-min Rain = 0
KHO1 100545Z 00004KT M02/M02 A3042 RMK A01 T10161016  RH  100%=      5-min Rain = 0
KHO1 100546Z 00004KT M02/M02 A3042 RMK A01 T10161016  RH  100%=      5-min Rain = 0
KHO1 100547Z 00004KT M02/M02 A3042 RMK A01 T10161017  RH  099%=      5-min Rain = 0
KHO1 100548Z 00004KT M02/M02 A3042 RMK A01 T10161017  RH  099%=      5-min Rain = 0
KHO1 100549Z 00004KT M02/M02 A3042 RMK A01 T10161017  RH  099%=      5-min Rain = 0
KHO1 100550Z 00004KT M02/M02 A3042 RMK A01 T10161017  RH  099%=      5-min Rain = 0
KHO1 100551Z 00004KT M02/M02 A3042 RMK A01 T10171018  RH  099%=      5-min Rain = 0
KHO1 100552Z 35003KT M02/M02 A3042 RMK A01 T10171018  RH  099%=      5-min Rain = 0
KHO1 100553Z 35003KT M02/M02 A3042 RMK A01 T10171018  RH  099%=      5-min Rain = 0
KHO1 100554Z 35003KT M02/M02 A3042 RMK A01 T10171018  RH  099%=      5-min Rain = 0
KHO1 100555Z 35004KT M02/M02 A3042 RMK A01 T10181019  RH  099%=      5-min Rain = 0
KHO1 100556Z 35004KT M02/M02 A3042 RMK A01 T10181019  RH  099%=      5-min Rain = 0
KHO1 100557Z 35004KT M02/M02 A3042 RMK A01 T10181019  RH  099%=      5-min Rain = 0
KHO1 100558Z 35004KT M02/M02 A3042 RMK A01 T10181019  RH  099%=      5-min Rain = 0
KHO1 100559Z 35004KT M02/M02 A3042 RMK A01 T10181019  RH  099%=      5-min Rain = 0

Page generated in 0.1441 seconds.